| time (UTC) | temp F | wind direction | speed knots | gust knots | rain 1hr in | rain 24hr in | rain mn in | humidity % | barometer mb |
| 20260906130045 | 74 | 332 | 3.5 | 10.4 | 0.00 | 0.05 | 0.04 | 83 | 1017.3 |
| 20260906130010 | 74 | 302 | 3.5 | 10.4 | 0.00 | 0.05 | 0.04 | 83 | 1017.2 |
| 20260906125958 | 74 | 244 | 3.5 | 10.4 | 0.00 | 0.05 | 0.04 | 83 | 1017.2 |
| 20260906125740 | 74 | 245 | 3.5 | 10.4 | 0.00 | 0.05 | 0.04 | 84 | 1017.3 |
| 20260906125708 | 74 | 258 | 2.6 | 7.0 | 0.00 | 0.05 | 0.04 | 84 | 1017.2 |
| 20260906125658 | 74 | 287 | 3.5 | 10.4 | 0.00 | 0.05 | 0.04 | 84 | 1017.3 |
| 20260906125435 | 74 | 281 | 2.6 | 7.0 | 0.00 | 0.05 | 0.04 | 84 | 1017.2 |
| 20260906125334 | 74 | 243 | 2.6 | 7.0 | 0.00 | 0.05 | 0.04 | 84 | 1017.2 |
| 20260906125235 | 73 | 273 | 2.6 | 7.0 | 0.00 | 0.05 | 0.04 | 85 | 1017.2 |
| 20260906125136 | 73 | 294 | 2.6 | 7.8 | 0.00 | 0.05 | 0.04 | 84 | 1017.2 |
| 20260906125036 | 73 | 250 | 2.6 | 7.8 | 0.00 | 0.05 | 0.04 | 84 | 1017.2 |
| 20260906124936 | 73 | 305 | 2.6 | 7.8 | 0.00 | 0.05 | 0.04 | 85 | 1017.2 |
| 20260906124850 | 73 | 217 | 3.5 | 7.8 | 0.00 | 0.05 | 0.04 | 85 | 1017.2 |
| 20260906124836 | 73 | 328 | 3.5 | 7.8 | 0.00 | 0.05 | 0.04 | 85 | 1017.2 |
| 20260906124757 | 73 | 215 | 3.5 | 7.8 | 0.00 | 0.05 | 0.04 | 85 | 1017.2 |
| 20260906124617 | 73 | 209 | 3.5 | 7.8 | 0.00 | 0.05 | 0.04 | 85 | 1017.3 |
| 20260906124603 | 73 | 214 | 3.5 | 7.8 | 0.00 | 0.05 | 0.04 | 85 | 1017.2 |
| 20260906124336 | 73 | 211 | 3.5 | 9.6 | 0.00 | 0.05 | 0.04 | 85 | 1017.2 |
| 20260906124236 | 73 | 224 | 3.5 | 9.6 | 0.00 | 0.05 | 0.04 | 85 | 1017.3 |
| 20260906124136 | 73 | 204 | 3.5 | 9.6 | 0.00 | 0.05 | 0.04 | 85 | 1017.2 |
| 20260906124036 | 73 | 229 | 3.5 | 9.6 | 0.00 | 0.05 | 0.04 | 84 | 1017.2 |
| 20260906123933 | 73 | 246 | 3.5 | 9.6 | 0.00 | 0.05 | 0.04 | 85 | 1017.2 |
| 20260906123833 | 73 | 268 | 3.5 | 9.6 | 0.00 | 0.05 | 0.04 | 85 | 1017.2 |
| 20260906123733 | 73 | 187 | 4.3 | 9.6 | 0.00 | 0.05 | 0.04 | 84 | 1017.2 |
| 20260906123635 | 73 | 229 | 4.3 | 9.6 | 0.00 | 0.05 | 0.04 | 84 | 1017.2 |
| 20260906123555 | 73 | 284 | 3.5 | 9.6 | 0.00 | 0.05 | 0.04 | 85 | 1017.1 |
| 20260906123550 | 73 | 238 | 3.5 | 9.6 | 0.00 | 0.05 | 0.04 | 85 | 1017.1 |
| 20260906123537 | 73 | 229 | 4.3 | 9.6 | 0.00 | 0.05 | 0.04 | 84 | 1017.2 |
| 20260906123516 | 73 | 291 | 3.5 | 9.6 | 0.00 | 0.05 | 0.04 | 84 | 1017.1 |
| 20260906123135 | 73 | 301 | 3.5 | 9.6 | 0.00 | 0.05 | 0.04 | 85 | 1017.1 |
| 20260906123034 | 73 | 225 | 3.5 | 9.6 | 0.00 | 0.05 | 0.04 | 85 | 1017.1 |
| 20260906122934 | 73 | 250 | 3.5 | 7.8 | 0.00 | 0.05 | 0.04 | 85 | 1017.1 |
| 20260906122907 | 73 | 198 | 3.5 | 7.8 | 0.00 | 0.05 | 0.04 | 86 | 1017.1 |
| 20260906122856 | 73 | 226 | 3.5 | 7.8 | 0.00 | 0.05 | 0.04 | 85 | 1017.1 |
| 20260906122629 | 73 | 230 | 3.5 | 7.8 | 0.00 | 0.05 | 0.04 | 86 | 1017.0 |
| 20260906122529 | 73 | 227 | 3.5 | 7.8 | 0.00 | 0.05 | 0.04 | 87 | 1017.1 |
| 20260906122431 | 73 | 213 | 3.5 | 8.7 | 0.00 | 0.05 | 0.04 | 87 | 1017.0 |
| 20260906122356 | 72 | 229 | 3.5 | 9.6 | 0.00 | 0.05 | 0.04 | 87 | 1017.0 |
| 20260906122345 | 72 | 200 | 3.5 | 8.7 | 0.00 | 0.05 | 0.04 | 86 | 1017.0 |
| 20260906122321 | 72 | 218 | 3.5 | 8.7 | 0.00 | 0.05 | 0.04 | 86 | 1017.1 |
| 20260906122207 | 72 | 229 | 3.5 | 9.6 | 0.00 | 0.05 | 0.04 | 87 | 1016.9 |
| 20260906122201 | 72 | 209 | 4.3 | 9.6 | 0.00 | 0.05 | 0.04 | 87 | 1016.9 |
| 20260906122146 | 72 | 218 | 3.5 | 8.7 | 0.00 | 0.05 | 0.04 | 87 | 1017.0 |
| 20260906122000 | 72 | 269 | 3.5 | 9.6 | 0.00 | 0.05 | 0.04 | 87 | 1017.0 |
| 20260906121617 | 72 | 205 | 4.3 | 9.6 | 0.00 | 0.05 | 0.04 | 86 | 1016.9 |
| 20260906121517 | 72 | 233 | 4.3 | 9.6 | 0.00 | 0.05 | 0.04 | 87 | 1016.9 |
| 20260906121457 | 72 | 198 | 3.5 | 9.6 | 0.00 | 0.05 | 0.04 | 87 | 1016.8 |
| 20260906121450 | 72 | 199 | 4.3 | 9.6 | 0.00 | 0.05 | 0.04 | 87 | 1016.9 |
| 20260906121210 | 72 | 210 | 3.5 | 9.6 | 0.00 | 0.05 | 0.04 | 87 | 1016.9 |
| 20260906121111 | 72 | 257 | 3.5 | 9.6 | 0.00 | 0.05 | 0.04 | 87 | 1016.9 |
| 20260906121103 | 73 | 237 | 3.5 | 8.7 | 0.00 | 0.05 | 0.04 | 87 | 1016.8 |
| 20260906121058 | 73 | 223 | 3.5 | 8.7 | 0.00 | 0.05 | 0.04 | 87 | 1016.8 |
| 20260906121052 | 73 | 200 | 3.5 | 8.7 | 0.00 | 0.05 | 0.04 | 87 | 1016.8 |
| 20260906121048 | 73 | 215 | 3.5 | 7.8 | 0.00 | 0.05 | 0.04 | 87 | 1016.7 |
| 20260906121034 | 72 | 217 | 3.5 | 8.7 | 0.00 | 0.05 | 0.04 | 87 | 1016.8 |
| 20260906120853 | 73 | 223 | 3.5 | 8.7 | 0.00 | 0.05 | 0.04 | 87 | 1016.8 |
| 20260906120504 | 73 | 211 | 3.5 | 10.4 | 0.00 | 0.05 | 0.04 | 86 | 1016.8 |
| 20260906120436 | 73 | 220 | 3.5 | 10.4 | 0.00 | 0.05 | 0.04 | 86 | 1016.7 |
| 20260906120424 | 73 | 236 | 3.5 | 10.4 | 0.00 | 0.05 | 0.04 | 86 | 1016.7 |
| 20260906120231 | 73 | 236 | 3.5 | 10.4 | 0.00 | 0.05 | 0.04 | 86 | 1016.7 |
| 20260906120219 | 73 | 218 | 3.5 | 10.4 | 0.00 | 0.05 | 0.04 | 86 | 1016.7 |
| 20260906115955 | 73 | 231 | 3.5 | 10.4 | 0.00 | 0.05 | 0.04 | 86 | 1016.7 |
| 20260906115856 | 73 | 212 | 3.5 | 10.4 | 0.00 | 0.05 | 0.04 | 86 | 1016.5 |
| 20260906115754 | 73 | 211 | 3.5 | 10.4 | 0.00 | 0.05 | 0.04 | 86 | 1016.5 |
| 20260906115643 | 73 | 227 | 3.5 | 10.4 | 0.00 | 0.05 | 0.04 | 86 | 1016.7 |
| 20260906115544 | 73 | 231 | 3.5 | 10.4 | 0.00 | 0.05 | 0.04 | 86 | 1016.5 |
| 20260906115444 | 73 | 205 | 3.5 | 7.0 | 0.00 | 0.05 | 0.04 | 86 | 1016.7 |
| 20260906115357 | 73 | 225 | 3.5 | 7.0 | 0.00 | 0.05 | 0.04 | 86 | 1016.7 |
| 20260906115316 | 73 | 225 | 3.5 | 6.1 | 0.00 | 0.05 | 0.04 | 86 | 1016.7 |
| 20260906115306 | 73 | 214 | 3.5 | 7.0 | 0.00 | 0.05 | 0.04 | 86 | 1016.5 |
| 20260906115054 | 73 | 234 | 3.5 | 6.1 | 0.00 | 0.05 | 0.04 | 86 | 1016.7 |
| 20260906115050 | 73 | 251 | 3.5 | 6.1 | 0.00 | 0.05 | 0.04 | 87 | 1016.7 |
| 20260906115040 | 73 | 232 | 3.5 | 6.1 | 0.00 | 0.05 | 0.04 | 86 | 1016.7 |
| 20260906115017 | 73 | 218 | 3.5 | 6.1 | 0.00 | 0.05 | 0.04 | 86 | 1016.7 |
| 20260906114627 | 73 | 217 | 3.5 | 6.1 | 0.00 | 0.05 | 0.04 | 87 | 1016.5 |
| 20260906114527 | 72 | 236 | 3.5 | 6.1 | 0.00 | 0.05 | 0.04 | 87 | 1016.7 |
| 20260906114507 | 72 | 231 | 3.5 | 7.0 | 0.00 | 0.05 | 0.04 | 87 | 1016.7 |
| 20260906114454 | 72 | 229 | 3.5 | 6.1 | 0.00 | 0.05 | 0.04 | 87 | 1016.5 |
| 20260906114228 | 72 | 214 | 3.5 | 7.0 | 0.00 | 0.05 | 0.04 | 87 | 1016.5 |
| 20260906114118 | 72 | 202 | 3.5 | 7.0 | 0.00 | 0.05 | 0.04 | 87 | 1016.7 |
| 20260906114017 | 72 | 207 | 3.5 | 7.8 | 0.00 | 0.05 | 0.04 | 87 | 1016.7 |
| 20260906113950 | 71 | 212 | 3.5 | 7.8 | 0.00 | 0.05 | 0.04 | 88 | 1016.7 |
| 20260906113940 | 71 | 285 | 3.5 | 7.8 | 0.00 | 0.05 | 0.04 | 87 | 1016.5 |
| 20260906113753 | 71 | 227 | 3.5 | 7.8 | 0.00 | 0.05 | 0.04 | 88 | 1016.5 |
| 20260906113740 | 71 | 205 | 3.5 | 7.8 | 0.00 | 0.05 | 0.04 | 88 | 1016.5 |
| 20260906113510 | 71 | 209 | 3.5 | 7.8 | 0.00 | 0.05 | 0.04 | 88 | 1016.5 |
| 20260906113412 | 71 | 217 | 3.5 | 7.8 | 0.00 | 0.05 | 0.04 | 88 | 1016.5 |
| 20260906113311 | 71 | 198 | 3.5 | 8.7 | 0.00 | 0.05 | 0.04 | 88 | 1016.5 |
| 20260906113212 | 71 | 234 | 3.5 | 8.7 | 0.00 | 0.05 | 0.04 | 89 | 1016.5 |
| 20260906113105 | 71 | 257 | 3.5 | 8.7 | 0.00 | 0.05 | 0.04 | 89 | 1016.4 |
| 20260906113006 | 71 | 265 | 3.5 | 8.7 | 0.00 | 0.05 | 0.04 | 89 | 1016.4 |
| 20260906112905 | 71 | 216 | 3.5 | 8.7 | 0.00 | 0.05 | 0.04 | 90 | 1016.4 |
| 20260906112806 | 71 | 228 | 3.5 | 8.7 | 0.00 | 0.05 | 0.04 | 90 | 1016.4 |
| 20260906112706 | 71 | 202 | 3.5 | 8.7 | 0.00 | 0.05 | 0.04 | 89 | 1016.4 |
| 20260906112551 | 71 | 227 | 3.5 | 8.7 | 0.00 | 0.05 | 0.04 | 89 | 1016.4 |
| 20260906112450 | 71 | 213 | 3.5 | 9.6 | 0.00 | 0.05 | 0.04 | 89 | 1016.4 |
| 20260906112351 | 71 | 302 | 4.3 | 9.6 | 0.00 | 0.05 | 0.04 | 89 | 1016.4 |
| 20260906112251 | 71 | 236 | 3.5 | 9.6 | 0.00 | 0.05 | 0.04 | 89 | 1016.3 |
| 20260906112218 | 71 | 233 | 3.5 | 9.6 | 0.00 | 0.05 | 0.04 | 89 | 1016.4 |
| 20260906112209 | 71 | 202 | 3.5 | 9.6 | 0.00 | 0.05 | 0.04 | 89 | 1016.3 |
| 20260906111947 | 71 | 215 | 3.5 | 9.6 | 0.00 | 0.05 | 0.04 | 89 | 1016.3 |
| 20260906111846 | 71 | 223 | 3.5 | 9.6 | 0.00 | 0.05 | 0.04 | 89 | 1016.3 |
| 20260906111748 | 71 | 208 | 3.5 | 9.6 | 0.00 | 0.05 | 0.04 | 89 | 1016.3 |
| 20260906111646 | 71 | 217 | 4.3 | 9.6 | 0.00 | 0.05 | 0.04 | 89 | 1016.3 |
| 20260906111542 | 71 | 235 | 4.3 | 9.6 | 0.00 | 0.05 | 0.04 | 89 | 1016.3 |
| 20260906111439 | 71 | 246 | 4.3 | 8.7 | 0.00 | 0.05 | 0.04 | 89 | 1016.3 |
| 20260906111340 | 71 | 214 | 3.5 | 8.7 | 0.00 | 0.05 | 0.04 | 88 | 1016.2 |
| 20260906111239 | 71 | 207 | 3.5 | 8.7 | 0.00 | 0.05 | 0.04 | 89 | 1016.2 |
| 20260906111140 | 71 | 201 | 4.3 | 9.6 | 0.00 | 0.05 | 0.04 | 88 | 1016.1 |
| 20260906111032 | 71 | 227 | 4.3 | 9.6 | 0.00 | 0.05 | 0.04 | 88 | 1016.3 |
| 20260906111008 | 71 | 234 | 4.3 | 9.6 | 0.00 | 0.05 | 0.04 | 88 | 1016.2 |
| 20260906110955 | 71 | 226 | 3.5 | 9.6 | 0.00 | 0.05 | 0.04 | 88 | 1016.2 |
| 20260906110729 | 71 | 218 | 4.3 | 9.6 | 0.00 | 0.05 | 0.04 | 88 | 1016.2 |
| 20260906110630 | 71 | 228 | 4.3 | 9.6 | 0.00 | 0.05 | 0.04 | 88 | 1016.1 |
| 20260906110523 | 71 | 207 | 3.5 | 9.6 | 0.00 | 0.05 | 0.04 | 88 | 1016.1 |
| 20260906110422 | 71 | 194 | 3.5 | 9.6 | 0.00 | 0.05 | 0.04 | 88 | 1016.1 |
| 20260906110401 | 71 | 274 | 3.5 | 9.6 | 0.00 | 0.05 | 0.04 | 88 | 1016.2 |
| 20260906110349 | 71 | 242 | 3.5 | 9.6 | 0.00 | 0.05 | 0.04 | 88 | 1016.1 |
| 20260906110125 | 71 | 209 | 3.5 | 9.6 | 0.00 | 0.05 | 0.04 | 88 | 1016.1 |
| 20260906110018 | 71 | 213 | 3.5 | 9.6 | 0.00 | 0.05 | 0.04 | 88 | 1016.0 |
| 20260906105925 | 71 | 211 | 4.3 | 9.6 | 0.00 | 0.05 | 0.04 | 89 | 1016.1 |
| 20260906105819 | 71 | 219 | 4.3 | 9.6 | 0.00 | 0.05 | 0.04 | 89 | 1016.0 |
| 20260906105714 | 71 | 225 | 4.3 | 9.6 | 0.00 | 0.05 | 0.04 | 89 | 1016.0 |
| 20260906105619 | 71 | 200 | 4.3 | 9.6 | 0.00 | 0.05 | 0.04 | 89 | 1016.0 |
| 20260906105515 | 71 | 215 | 4.3 | 9.6 | 0.00 | 0.05 | 0.04 | 89 | 1016.0 |
| 20260906105457 | 71 | 217 | 4.3 | 9.6 | 0.00 | 0.05 | 0.04 | 89 | 1016.1 |
| 20260906105451 | 71 | 263 | 4.3 | 8.7 | 0.00 | 0.05 | 0.04 | 89 | 1016.1 |
| 20260906105436 | 71 | 217 | 4.3 | 9.6 | 0.00 | 0.05 | 0.04 | 89 | 1016.0 |
| 20260906105410 | 71 | 210 | 4.3 | 9.6 | 0.00 | 0.05 | 0.04 | 89 | 1016.1 |
| 20260906105038 | 71 | 225 | 4.3 | 8.7 | 0.00 | 0.05 | 0.04 | 89 | 1016.1 |
| 20260906105027 | 71 | 219 | 4.3 | 8.7 | 0.00 | 0.05 | 0.04 | 89 | 1016.1 |
| 20260906104803 | 71 | 221 | 4.3 | 8.7 | 0.00 | 0.05 | 0.04 | 89 | 1016.2 |
| 20260906104704 | 71 | 219 | 4.3 | 8.7 | 0.00 | 0.05 | 0.04 | 88 | 1016.1 |
| 20260906104633 | 71 | 208 | 4.3 | 8.7 | 0.00 | 0.05 | 0.04 | 88 | 1016.1 |
| 20260906104501 | 71 | 211 | 4.3 | 8.7 | 0.00 | 0.05 | 0.04 | 88 | 1016.0 |
| 20260906104405 | 71 | 213 | 4.3 | 8.7 | 0.00 | 0.05 | 0.04 | 88 | 1016.1 |
| 20260906104319 | 71 | 199 | 4.3 | 8.7 | 0.00 | 0.05 | 0.04 | 88 | 1016.1 |
| 20260906104159 | 70 | 225 | 3.5 | 8.7 | 0.00 | 0.05 | 0.04 | 88 | 1016.1 |
| 20260906104100 | 70 | 213 | 4.3 | 9.6 | 0.00 | 0.05 | 0.04 | 89 | 1016.0 |
| 20260906104033 | 70 | 209 | 4.3 | 10.4 | 0.00 | 0.05 | 0.04 | 89 | 1016.0 |
| 20260906104020 | 70 | 212 | 4.3 | 9.6 | 0.00 | 0.05 | 0.04 | 89 | 1016.0 |
| 20260906103955 | 70 | 214 | 4.3 | 10.4 | 0.00 | 0.05 | 0.04 | 89 | 1016.0 |
| 20260906103830 | 70 | 212 | 4.3 | 10.4 | 0.00 | 0.05 | 0.04 | 89 | 1015.9 |
| 20260906103553 | 71 | 216 | 4.3 | 10.4 | 0.00 | 0.05 | 0.04 | 89 | 1016.0 |
| 20260906103452 | 71 | 221 | 4.3 | 10.4 | 0.00 | 0.05 | 0.04 | 89 | 1015.9 |
| 20260906103430 | 71 | 225 | 4.3 | 10.4 | 0.00 | 0.05 | 0.04 | 89 | 1016.1 |
| 20260906103418 | 71 | 215 | 4.3 | 10.4 | 0.00 | 0.05 | 0.04 | 89 | 1015.9 |
| 20260906103149 | 71 | 218 | 4.3 | 10.4 | 0.00 | 0.05 | 0.04 | 89 | 1016.0 |
| 20260906103050 | 71 | 214 | 3.5 | 10.4 | 0.00 | 0.05 | 0.04 | 89 | 1015.9 |
| 20260906103038 | 71 | 220 | 3.5 | 10.4 | 0.00 | 0.05 | 0.04 | 88 | 1016.0 |
| 20260906103028 | 71 | 215 | 3.5 | 9.6 | 0.00 | 0.05 | 0.04 | 89 | 1016.0 |
| 20260906102748 | 71 | 211 | 3.5 | 10.4 | 0.00 | 0.05 | 0.04 | 88 | 1016.0 |
| 20260906102737 | 71 | 208 | 3.5 | 10.4 | 0.00 | 0.05 | 0.04 | 88 | 1016.0 |
| 20260906102725 | 71 | 222 | 3.5 | 10.4 | 0.00 | 0.05 | 0.04 | 88 | 1016.1 |
| 20260906102451 | 71 | 221 | 3.5 | 10.4 | 0.00 | 0.05 | 0.04 | 88 | 1016.0 |
| 20260906102346 | 71 | 221 | 3.5 | 11.3 | 0.00 | 0.05 | 0.04 | 88 | 1016.0 |
| 20260906102247 | 71 | 202 | 4.3 | 11.3 | 0.00 | 0.05 | 0.04 | 88 | 1016.0 |
| 20260906102143 | 71 | 226 | 4.3 | 13.0 | 0.00 | 0.05 | 0.04 | 88 | 1016.0 |
| 20260906102109 | 71 | 215 | 4.3 | 13.0 | 0.00 | 0.05 | 0.04 | 88 | 1015.9 |
| 20260906102038 | 71 | 215 | 4.3 | 13.0 | 0.00 | 0.05 | 0.04 | 88 | 1015.9 |
| 20260906101939 | 71 | 234 | 4.3 | 13.0 | 0.00 | 0.05 | 0.04 | 88 | 1016.0 |
| 20260906101838 | 71 | 221 | 4.3 | 13.0 | 0.00 | 0.05 | 0.04 | 88 | 1015.9 |
| 20260906101740 | 71 | 206 | 5.2 | 13.9 | 0.00 | 0.05 | 0.04 | 87 | 1015.9 |
| 20260906101637 | 71 | 217 | 5.2 | 13.9 | 0.00 | 0.05 | 0.04 | 87 | 1016.0 |
| 20260906101532 | 71 | 207 | 5.2 | 13.9 | 0.00 | 0.05 | 0.04 | 87 | 1015.9 |
| 20260906101430 | 71 | 229 | 5.2 | 13.9 | 0.00 | 0.05 | 0.04 | 87 | 1016.0 |
| 20260906101332 | 71 | 219 | 5.2 | 13.9 | 0.00 | 0.05 | 0.04 | 87 | 1016.0 |
| 20260906101322 | 71 | 218 | 5.2 | 13.9 | 0.00 | 0.05 | 0.04 | 87 | 1016.0 |
| 20260906101307 | 71 | 219 | 5.2 | 13.9 | 0.00 | 0.05 | 0.04 | 87 | 1016.0 |
| 20260906101041 | 71 | 219 | 5.2 | 13.9 | 0.00 | 0.05 | 0.04 | 87 | 1016.0 |
| 20260906100932 | 71 | 198 | 5.2 | 13.9 | 0.00 | 0.05 | 0.04 | 87 | 1016.0 |
| 20260906100926 | 71 | 223 | 4.3 | 13.0 | 0.00 | 0.05 | 0.04 | 88 | 1016.0 |
| 20260906100903 | 71 | 230 | 4.3 | 13.0 | 0.00 | 0.05 | 0.04 | 88 | 1016.0 |
| 20260906100836 | 71 | 227 | 5.2 | 13.9 | 0.00 | 0.05 | 0.04 | 87 | 1016.0 |
| 20260906100822 | 71 | 230 | 4.3 | 13.0 | 0.00 | 0.05 | 0.04 | 88 | 1016.0 |
| 20260906100759 | 71 | 186 | 4.3 | 13.0 | 0.00 | 0.05 | 0.04 | 87 | 1016.1 |
| 20260906100732 | 71 | 215 | 4.3 | 13.0 | 0.00 | 0.05 | 0.04 | 87 | 1016.0 |
| 20260906100413 | 71 | 229 | 4.3 | 13.0 | 0.00 | 0.05 | 0.04 | 88 | 1016.0 |
| 20260906100358 | 71 | 212 | 4.3 | 13.0 | 0.00 | 0.05 | 0.04 | 88 | 1016.0 |
| 20260906100126 | 71 | 214 | 4.3 | 13.0 | 0.00 | 0.05 | 0.04 | 88 | 1016.0 |
| 20260906100044 | 71 | 198 | 4.3 | 13.0 | 0.00 | 0.05 | 0.04 | 88 | 1015.9 |
| 20260906095939 | 71 | 212 | 4.3 | 12.2 | 0.00 | 0.05 | 0.04 | 88 | 1015.9 |
| 20260906095925 | 71 | 210 | 4.3 | 12.2 | 0.00 | 0.05 | 0.04 | 88 | 1016.0 |
| 20260906095855 | 71 | 234 | 4.3 | 12.2 | 0.00 | 0.05 | 0.04 | 88 | 1016.0 |
| 20260906095625 | 71 | 217 | 4.3 | 12.2 | 0.00 | 0.05 | 0.04 | 88 | 1016.0 |
| 20260906095527 | 71 | 227 | 3.5 | 12.2 | 0.00 | 0.05 | 0.04 | 88 | 1016.0 |
| 20260906095429 | 71 | 251 | 3.5 | 12.2 | 0.00 | 0.05 | 0.04 | 88 | 1016.0 |
| 20260906095327 | 71 | 216 | 3.5 | 12.2 | 0.00 | 0.05 | 0.04 | 88 | 1016.0 |
| 20260906095316 | 71 | 215 | 3.5 | 10.4 | 0.00 | 0.05 | 0.04 | 88 | 1016.0 |
| 20260906095249 | 71 | 244 | 3.5 | 12.2 | 0.00 | 0.05 | 0.04 | 88 | 1016.0 |
| 20260906095213 | 71 | 215 | 3.5 | 11.3 | 0.00 | 0.05 | 0.04 | 88 | 1016.1 |
| 20260906094921 | 71 | 228 | 4.3 | 8.7 | 0.00 | 0.05 | 0.04 | 88 | 1016.0 |
| 20260906094823 | 71 | 215 | 4.3 | 8.7 | 0.00 | 0.05 | 0.04 | 88 | 1016.1 |
| 20260906094719 | 71 | 210 | 4.3 | 9.6 | 0.00 | 0.05 | 0.04 | 88 | 1016.0 |
| 20260906094622 | 71 | 206 | 4.3 | 9.6 | 0.00 | 0.05 | 0.04 | 87 | 1016.1 |
| 20260906094530 | 71 | 211 | 4.3 | 9.6 | 0.00 | 0.05 | 0.04 | 88 | 1016.2 |
| 20260906094427 | 71 | 193 | 4.3 | 9.6 | 0.00 | 0.05 | 0.04 | 88 | 1016.1 |
| 20260906094409 | 71 | 209 | 4.3 | 9.6 | 0.00 | 0.05 | 0.04 | 88 | 1016.2 |
| 20260906094348 | 71 | 202 | 4.3 | 9.6 | 0.00 | 0.05 | 0.04 | 88 | 1016.1 |
| 20260906094325 | 71 | 205 | 4.3 | 9.6 | 0.00 | 0.05 | 0.04 | 88 | 1016.2 |
| 20260906094019 | 71 | 205 | 4.3 | 9.6 | 0.00 | 0.05 | 0.04 | 88 | 1016.2 |
| 20260906093920 | 71 | 209 | 4.3 | 9.6 | 0.00 | 0.05 | 0.04 | 88 | 1016.3 |
| 20260906093819 | 71 | 231 | 3.5 | 9.6 | 0.00 | 0.05 | 0.04 | 88 | 1016.2 |
| 20260906093808 | 71 | 215 | 3.5 | 6.1 | 0.00 | 0.05 | 0.04 | 87 | 1016.0 |
| 20260906093806 | 71 | 209 | 3.5 | 7.0 | 0.00 | 0.05 | 0.04 | 87 | 1016.3 |
| 20260906093758 | 71 | 192 | 3.5 | 7.0 | 0.00 | 0.05 | 0.04 | 88 | 1016.2 |
| 20260906093748 | 71 | 209 | 3.5 | 7.0 | 0.00 | 0.05 | 0.04 | 88 | 1016.3 |
| 20260906093728 | 71 | 196 | 3.5 | 7.0 | 0.00 | 0.05 | 0.04 | 87 | 1016.2 |
| 20260906093715 | 71 | 213 | 3.5 | 7.0 | 0.00 | 0.05 | 0.04 | 88 | 1016.1 |
| 20260906093708 | 71 | 207 | 3.5 | 5.2 | 0.00 | 0.05 | 0.04 | 88 | 1016.1 |
| 20260906093703 | 71 | 202 | 3.5 | 6.1 | 0.00 | 0.05 | 0.04 | 87 | 1016.1 |
| 20260906093556 | 71 | 206 | 3.5 | 7.0 | 0.00 | 0.05 | 0.04 | 88 | 1016.2 |
| 20260906093535 | 71 | 219 | 3.5 | 7.0 | 0.00 | 0.05 | 0.04 | 88 | 1016.2 |
| 20260906093226 | 71 | 215 | 3.5 | 7.0 | 0.00 | 0.05 | 0.04 | 88 | 1016.2 |
| 20260906093039 | 71 | 220 | 3.5 | 7.0 | 0.00 | 0.05 | 0.04 | 88 | 1016.1 |
| 20260906092726 | 71 | 212 | 3.5 | 5.2 | 0.00 | 0.05 | 0.04 | 88 | 1016.0 |
| 20260906092705 | 71 | 206 | 3.5 | 5.2 | 0.00 | 0.05 | 0.04 | 87 | 1016.0 |
| 20260906092316 | 71 | 205 | 3.5 | 6.1 | 0.00 | 0.05 | 0.04 | 87 | 1016.1 |
| 20260906092215 | 71 | 202 | 3.5 | 6.1 | 0.00 | 0.05 | 0.04 | 87 | 1016.0 |
| 20260906092115 | 71 | 194 | 3.5 | 6.1 | 0.00 | 0.05 | 0.04 | 87 | 1016.0 |
| 20260906092016 | 71 | 185 | 2.6 | 6.1 | 0.00 | 0.05 | 0.04 | 86 | 1016.0 |
| 20260906091916 | 71 | 208 | 2.6 | 6.1 | 0.00 | 0.05 | 0.04 | 86 | 1016.1 |
| 20260906091812 | 71 | 205 | 3.5 | 6.1 | 0.00 | 0.05 | 0.04 | 86 | 1016.0 |
| 20260906091713 | 71 | 212 | 3.5 | 6.1 | 0.00 | 0.05 | 0.04 | 86 | 1016.0 |
| 20260906091611 | 71 | 219 | 2.6 | 6.1 | 0.00 | 0.05 | 0.04 | 86 | 1016.0 |
| 20260906091514 | 71 | 204 | 2.6 | 6.1 | 0.00 | 0.05 | 0.04 | 86 | 1016.0 |
| 20260906091503 | 71 | 236 | 2.6 | 5.2 | 0.00 | 0.05 | 0.04 | 86 | 1016.0 |
| 20260906091446 | 71 | 222 | 2.6 | 6.1 | 0.00 | 0.05 | 0.04 | 86 | 1016.0 |
| 20260906091421 | 71 | 219 | 2.6 | 6.1 | 0.00 | 0.05 | 0.04 | 86 | 1015.9 |
| 20260906091251 | 71 | 215 | 2.6 | 5.2 | 0.00 | 0.05 | 0.04 | 86 | 1015.9 |
| 20260906091011 | 71 | 206 | 2.6 | 6.1 | 0.00 | 0.05 | 0.04 | 86 | 1015.9 |
| 20260906090945 | 71 | 209 | 2.6 | 6.1 | 0.00 | 0.05 | 0.04 | 86 | 1015.9 |
| 20260906090933 | 71 | 278 | 2.6 | 6.1 | 0.00 | 0.05 | 0.04 | 86 | 1016.0 |
| 20260906090711 | 71 | 225 | 2.6 | 6.1 | 0.00 | 0.05 | 0.04 | 86 | 1016.1 |
| 20260906090609 | 71 | 209 | 2.6 | 6.1 | 0.00 | 0.05 | 0.04 | 86 | 1016.0 |
| 20260906090543 | 71 | 202 | 2.6 | 6.1 | 0.00 | 0.05 | 0.04 | 85 | 1016.0 |
| 20260906090417 | 71 | 202 | 2.6 | 6.1 | 0.00 | 0.05 | 0.04 | 86 | 1016.0 |
| 20260906090311 | 71 | 208 | 2.6 | 6.1 | 0.00 | 0.05 | 0.04 | 86 | 1015.9 |
| 20260906090226 | 71 | 191 | 2.6 | 6.1 | 0.00 | 0.05 | 0.04 | 85 | 1016.1 |
| 20260906090216 | 71 | 208 | 2.6 | 6.1 | 0.00 | 0.05 | 0.04 | 86 | 1016.0 |
| 20260906090207 | 71 | 221 | 2.6 | 7.8 | 0.00 | 0.05 | 0.04 | 85 | 1016.0 |
| 20260906090149 | 71 | 215 | 2.6 | 6.1 | 0.00 | 0.05 | 0.04 | 86 | 1016.0 |
| 20260906085811 | 71 | 213 | 2.6 | 7.8 | 0.00 | 0.05 | 0.04 | 85 | 1016.0 |
| 20260906085711 | 71 | 233 | 2.6 | 7.8 | 0.00 | 0.05 | 0.04 | 85 | 1016.0 |
| 20260906085610 | 71 | 216 | 2.6 | 7.8 | 0.00 | 0.05 | 0.04 | 86 | 1016.1 |
| 20260906085511 | 71 | 213 | 2.6 | 7.8 | 0.00 | 0.05 | 0.04 | 85 | 1016.0 |
| 20260906085410 | 71 | 208 | 2.6 | 7.8 | 0.00 | 0.05 | 0.04 | 86 | 1016.1 |
| 20260906085312 | 71 | 210 | 2.6 | 7.8 | 0.00 | 0.05 | 0.04 | 87 | 1016.1 |
| 20260906085208 | 71 | 184 | 2.6 | 7.8 | 0.00 | 0.05 | 0.04 | 87 | 1016.1 |
| 20260906085152 | 71 | 192 | 2.6 | 7.8 | 0.00 | 0.05 | 0.04 | 88 | 1016.1 |
| 20260906085138 | 71 | 161 | 2.6 | 7.8 | 0.00 | 0.05 | 0.04 | 88 | 1016.0 |
| 20260906084907 | 71 | 221 | 2.6 | 7.0 | 0.00 | 0.05 | 0.04 | 90 | 1016.0 |
| 20260906084849 | 71 | 220 | 2.6 | 6.1 | 0.00 | 0.05 | 0.04 | 90 | 1016.1 |
| 20260906084837 | 71 | 211 | 2.6 | 7.0 | 0.00 | 0.05 | 0.04 | 90 | 1016.1 |
| 20260906084610 | 71 | 220 | 2.6 | 7.8 | 0.00 | 0.05 | 0.04 | 90 | 1016.1 |
| 20260906084506 | 71 | 217 | 2.6 | 7.8 | 0.00 | 0.05 | 0.04 | 90 | 1016.1 |
| 20260906084402 | 71 | 159 | 2.6 | 7.8 | 0.00 | 0.05 | 0.04 | 91 | 1016.0 |
| 20260906084303 | 71 | 204 | 2.6 | 7.8 | 0.00 | 0.05 | 0.04 | 91 | 1016.1 |
| 20260906084202 | 71 | 229 | 2.6 | 7.8 | 0.00 | 0.05 | 0.04 | 91 | 1016.1 |
| 20260906084103 | 71 | 213 | 2.6 | 7.8 | 0.00 | 0.05 | 0.04 | 91 | 1016.0 |
| 20260906083958 | 71 | 202 | 2.6 | 7.8 | 0.00 | 0.05 | 0.04 | 91 | 1016.0 |
| 20260906083857 | 71 | 213 | 2.6 | 7.8 | 0.00 | 0.05 | 0.04 | 91 | 1016.0 |
| 20260906083755 | 71 | 218 | 2.6 | 7.8 | 0.00 | 0.05 | 0.04 | 91 | 1016.1 |
| 20260906083654 | 71 | 210 | 2.6 | 7.8 | 0.00 | 0.05 | 0.04 | 91 | 1016.0 |
| 20260906083612 | 71 | 213 | 3.5 | 8.7 | 0.00 | 0.05 | 0.04 | 92 | 1016.0 |
| 20260906083600 | 71 | 215 | 2.6 | 8.7 | 0.00 | 0.05 | 0.04 | 91 | 1016.0 |
| 20260906083535 | 71 | 224 | 2.6 | 8.7 | 0.00 | 0.05 | 0.04 | 92 | 1015.9 |
| 20260906083413 | 71 | 225 | 3.5 | 8.7 | 0.00 | 0.05 | 0.04 | 92 | 1016.0 |
| 20260906083150 | 71 | 219 | 3.5 | 8.7 | 0.00 | 0.05 | 0.04 | 92 | 1016.0 |
| 20260906083047 | 71 | 219 | 3.5 | 8.7 | 0.00 | 0.05 | 0.04 | 92 | 1016.0 |
| 20260906082940 | 71 | 217 | 3.5 | 8.7 | 0.00 | 0.05 | 0.04 | 92 | 1015.9 |
| 20260906082923 | 71 | 197 | 3.5 | 9.6 | 0.00 | 0.05 | 0.04 | 92 | 1015.9 |
| 20260906082918 | 71 | 198 | 3.5 | 9.6 | 0.00 | 0.05 | 0.04 | 92 | 1015.9 |
| 20260906082912 | 71 | 227 | 3.5 | 9.6 | 0.00 | 0.05 | 0.04 | 93 | 1015.9 |
| 20260906082908 | 71 | 257 | 3.5 | 9.6 | 0.00 | 0.05 | 0.04 | 93 | 1015.9 |
| 20260906082903 | 71 | 273 | 3.5 | 9.6 | 0.00 | 0.05 | 0.04 | 93 | 1015.9 |
| 20260906082850 | 71 | 263 | 3.5 | 8.7 | 0.00 | 0.05 | 0.04 | 92 | 1016.0 |
| 20260906082829 | 71 | 221 | 3.5 | 8.7 | 0.00 | 0.05 | 0.04 | 92 | 1016.0 |
| 20260906082530 | 71 | 215 | 3.5 | 9.6 | 0.00 | 0.05 | 0.04 | 92 | 1016.0 |
| 20260906082027 | 71 | 222 | 3.5 | 9.6 | 0.00 | 0.05 | 0.04 | 93 | 1016.0 |
| 20260906081923 | 71 | 227 | 3.5 | 9.6 | 0.00 | 0.05 | 0.04 | 93 | 1016.0 |
| 20260906081820 | 71 | 221 | 3.5 | 9.6 | 0.00 | 0.05 | 0.04 | 93 | 1016.0 |
| 20260906081721 | 71 | 236 | 3.5 | 9.6 | 0.00 | 0.05 | 0.04 | 93 | 1016.0 |
| 20260906081622 | 71 | 209 | 2.6 | 7.8 | 0.00 | 0.05 | 0.04 | 93 | 1016.0 |
| 20260906081520 | 71 | 218 | 2.6 | 7.8 | 0.00 | 0.05 | 0.04 | 93 | 1016.0 |
| 20260906081414 | 71 | 212 | 2.6 | 7.8 | 0.00 | 0.05 | 0.04 | 93 | 1016.0 |
| 20260906081314 | 71 | 213 | 2.6 | 7.8 | 0.00 | 0.05 | 0.04 | 94 | 1015.9 |
| 20260906081214 | 71 | 211 | 2.6 | 7.8 | 0.00 | 0.05 | 0.04 | 94 | 1016.0 |
| 20260906081147 | 71 | 233 | 2.6 | 7.8 | 0.00 | 0.05 | 0.04 | 94 | 1016.0 |
| 20260906081015 | 71 | 206 | 2.6 | 7.8 | 0.00 | 0.05 | 0.04 | 94 | 1016.0 |
| 20260906080908 | 71 | 228 | 2.6 | 7.8 | 0.00 | 0.05 | 0.04 | 94 | 1016.0 |
| 20260906080808 | 71 | 221 | 2.6 | 6.1 | 0.00 | 0.05 | 0.04 | 95 | 1016.0 |
| 20260906080709 | 70 | 227 | 2.6 | 6.1 | 0.00 | 0.05 | 0.04 | 95 | 1016.0 |
| 20260906080637 | 70 | 255 | 2.6 | 6.1 | 0.00 | 0.05 | 0.04 | 95 | 1016.0 |
| 20260906080626 | 70 | 243 | 2.6 | 6.1 | 0.00 | 0.05 | 0.04 | 95 | 1015.9 |
| 20260906080400 | 70 | 221 | 2.6 | 6.1 | 0.00 | 0.05 | 0.04 | 95 | 1015.9 |
| 20260906080300 | 70 | 238 | 2.6 | 6.1 | 0.00 | 0.05 | 0.04 | 95 | 1015.9 |
| 20260906080200 | 70 | 212 | 2.6 | 5.2 | 0.00 | 0.05 | 0.04 | 95 | 1016.0 |
| 20260906080132 | 70 | 217 | 2.6 | 5.2 | 0.00 | 0.05 | 0.04 | 95 | 1016.0 |
| 20260906080121 | 70 | 221 | 2.6 | 5.2 | 0.00 | 0.05 | 0.04 | 95 | 1016.0 |
| 20260906075858 | 70 | 216 | 2.6 | 5.2 | 0.00 | 0.05 | 0.04 | 95 | 1016.0 |
| 20260906075756 | 70 | 216 | 2.6 | 5.2 | 0.00 | 0.05 | 0.04 | 95 | 1016.0 |
| 20260906075654 | 70 | 216 | 2.6 | 5.2 | 0.00 | 0.05 | 0.04 | 95 | 1016.0 |
| 20260906075555 | 70 | 219 | 2.6 | 6.1 | 0.00 | 0.05 | 0.04 | 95 | 1016.0 |
| 20260906075454 | 70 | 219 | 2.6 | 6.1 | 0.00 | 0.05 | 0.04 | 95 | 1016.0 |
| 20260906075349 | 70 | 219 | 2.6 | 6.1 | 0.00 | 0.05 | 0.04 | 95 | 1016.0 |
| 20260906075342 | 70 | 216 | 2.6 | 7.0 | 0.00 | 0.05 | 0.04 | 95 | 1015.9 |
| 20260906075337 | 70 | 209 | 2.6 | 6.1 | 0.00 | 0.05 | 0.04 | 95 | 1015.9 |
| 20260906075323 | 70 | 225 | 2.6 | 6.1 | 0.00 | 0.05 | 0.04 | 95 | 1016.0 |
| 20260906075138 | 70 | 219 | 2.6 | 6.1 | 0.00 | 0.05 | 0.04 | 95 | 1016.0 |
| 20260906075024 | 70 | 224 | 2.6 | 8.7 | 0.00 | 0.05 | 0.04 | 95 | 1015.9 |
| 20260906075018 | 70 | 232 | 3.5 | 8.7 | 0.00 | 0.05 | 0.04 | 95 | 1015.9 |
| 20260906075004 | 70 | 203 | 2.6 | 6.1 | 0.00 | 0.05 | 0.04 | 95 | 1016.0 |
| 20260906074946 | 70 | 229 | 2.6 | 6.1 | 0.00 | 0.05 | 0.04 | 95 | 1015.9 |
| 20260906074443 | 70 | 217 | 3.5 | 8.7 | 0.00 | 0.05 | 0.04 | 95 | 1016.0 |
| 20260906074342 | 70 | 208 | 3.5 | 8.7 | 0.00 | 0.05 | 0.04 | 95 | 1015.9 |
| 20260906074314 | 70 | 206 | 3.5 | 11.3 | 0.00 | 0.05 | 0.04 | 95 | 1015.9 |
| 20260906074304 | 70 | 211 | 3.5 | 8.7 | 0.00 | 0.05 | 0.04 | 95 | 1016.0 |
| 20260906074101 | 70 | 183 | 3.5 | 8.7 | 0.00 | 0.05 | 0.04 | 95 | 1016.2 |
| 20260906074057 | 70 | 209 | 4.3 | 11.3 | 0.00 | 0.05 | 0.04 | 95 | 1016.1 |
| 20260906074052 | 70 | 217 | 4.3 | 11.3 | 0.00 | 0.05 | 0.04 | 95 | 1016.1 |
| 20260906074040 | 70 | 245 | 3.5 | 11.3 | 0.00 | 0.05 | 0.04 | 95 | 1016.0 |
| 20260906074033 | 70 | 221 | 3.5 | 7.8 | 0.00 | 0.05 | 0.04 | 95 | 1016.1 |
| 20260906074028 | 70 | 222 | 3.5 | 8.7 | 0.00 | 0.05 | 0.04 | 95 | 1016.1 |
| 20260906074009 | 70 | 202 | 4.3 | 11.3 | 0.00 | 0.05 | 0.04 | 95 | 1016.0 |
| 20260906073844 | 70 | 195 | 4.3 | 11.3 | 0.00 | 0.05 | 0.04 | 95 | 1016.0 |
| 20260906073838 | 70 | 217 | 3.5 | 8.7 | 0.00 | 0.05 | 0.04 | 95 | 1016.2 |
| 20260906073821 | 70 | 217 | 4.3 | 11.3 | 0.00 | 0.05 | 0.04 | 95 | 1016.0 |
| 20260906073641 | 70 | 218 | 4.3 | 11.3 | 0.00 | 0.05 | 0.04 | 95 | 1016.0 |
| 20260906073622 | 70 | 205 | 4.3 | 11.3 | 0.00 | 0.05 | 0.04 | 95 | 1016.0 |
| 20260906072829 | 70 | 208 | 3.5 | 8.7 | 0.00 | 0.05 | 0.04 | 95 | 1016.3 |
| 20260906072757 | 70 | 227 | 3.5 | 8.7 | 0.00 | 0.05 | 0.04 | 95 | 1016.2 |
| 20260906072748 | 70 | 225 | 3.5 | 8.7 | 0.00 | 0.05 | 0.04 | 95 | 1016.2 |
| 20260906072524 | 70 | 211 | 3.5 | 8.7 | 0.00 | 0.05 | 0.04 | 95 | 1016.3 |
| 20260906072424 | 70 | 201 | 3.5 | 8.7 | 0.00 | 0.05 | 0.04 | 95 | 1016.3 |
| 20260906072324 | 70 | 212 | 3.5 | 8.7 | 0.00 | 0.05 | 0.04 | 95 | 1016.4 |
| 20260906072223 | 70 | 223 | 3.5 | 8.7 | 0.00 | 0.05 | 0.04 | 95 | 1016.4 |
| 20260906072111 | 70 | 215 | 3.5 | 8.7 | 0.00 | 0.05 | 0.04 | 95 | 1016.4 |
| 20260906072010 | 70 | 213 | 3.5 | 8.7 | 0.00 | 0.05 | 0.04 | 95 | 1016.4 |
| 20260906071914 | 70 | 211 | 4.3 | 8.7 | 0.00 | 0.05 | 0.04 | 95 | 1016.4 |
| 20260906071808 | 70 | 239 | 4.3 | 8.7 | 0.00 | 0.05 | 0.04 | 95 | 1016.4 |
| 20260906071709 | 70 | 223 | 4.3 | 8.7 | 0.00 | 0.05 | 0.04 | 95 | 1016.4 |
| 20260906071604 | 70 | 231 | 4.3 | 8.7 | 0.00 | 0.05 | 0.04 | 95 | 1016.3 |
| 20260906071504 | 70 | 219 | 4.3 | 8.7 | 0.00 | 0.05 | 0.04 | 95 | 1016.4 |
| 20260906071403 | 70 | 213 | 4.3 | 8.7 | 0.00 | 0.05 | 0.04 | 95 | 1016.4 |
| 20260906071345 | 70 | 206 | 3.5 | 8.7 | 0.00 | 0.05 | 0.04 | 95 | 1016.5 |
| 20260906071329 | 70 | 211 | 4.3 | 8.7 | 0.00 | 0.05 | 0.04 | 95 | 1016.4 |
| 20260906071135 | 70 | 209 | 3.5 | 9.6 | 0.00 | 0.05 | 0.04 | 95 | 1016.5 |
| 20260906071123 | 70 | 206 | 3.5 | 8.7 | 0.00 | 0.05 | 0.04 | 95 | 1016.5 |
| 20260906070901 | 70 | 194 | 3.5 | 9.6 | 0.00 | 0.05 | 0.04 | 95 | 1016.5 |
| 20260906070800 | 70 | 251 | 3.5 | 9.6 | 0.00 | 0.05 | 0.04 | 95 | 1016.7 |
| 20260906070656 | 70 | 224 | 3.5 | 9.6 | 0.00 | 0.05 | 0.04 | 95 | 1016.5 |
| 20260906070553 | 70 | 218 | 4.3 | 9.6 | 0.00 | 0.05 | 0.04 | 95 | 1016.7 |
| 20260906070451 | 70 | 214 | 4.3 | 9.6 | 0.00 | 0.05 | 0.04 | 95 | 1016.7 |
| 20260906070350 | 70 | 200 | 4.3 | 9.6 | 0.00 | 0.05 | 0.04 | 95 | 1016.8 |
| 20260906070250 | 70 | 180 | 4.3 | 9.6 | 0.00 | 0.05 | 0.04 | 95 | 1016.7 |
| 20260906070147 | 70 | 218 | 4.3 | 9.6 | 0.00 | 0.05 | 0.04 | 95 | 1016.7 |
| 20260906070040 | 70 | 220 | 4.3 | 9.6 | 0.00 | 0.05 | 0.04 | 95 | 1016.8 |
| 20260906070015 | 70 | 239 | 4.3 | 10.4 | 0.00 | 0.05 | 0.04 | 95 | 1016.9 |
| 20260906070002 | 70 | 205 | 4.3 | 10.4 | 0.00 | 0.05 | 0.04 | 95 | 1016.8 |
| 20260906065741 | 70 | 166 | 4.3 | 10.4 | 0.00 | 0.05 | 0.04 | 94 | 1016.8 |
| 20260906065656 | 70 | 272 | 4.3 | 10.4 | 0.00 | 0.05 | 0.04 | 94 | 1016.9 |
| 20260906065644 | 70 | 213 | 4.3 | 10.4 | 0.00 | 0.05 | 0.04 | 94 | 1016.9 |
| 20260906065621 | 70 | 200 | 4.3 | 10.4 | 0.00 | 0.05 | 0.04 | 94 | 1016.8 |
| 20260906065459 | 70 | 212 | 4.3 | 10.4 | 0.00 | 0.05 | 0.04 | 94 | 1016.9 |
| 20260906065237 | 70 | 204 | 3.5 | 10.4 | 0.00 | 0.05 | 0.04 | 94 | 1017.0 |
| 20260906065135 | 70 | 202 | 3.5 | 10.4 | 0.00 | 0.05 | 0.04 | 94 | 1017.0 |
| 20260906065031 | 70 | 223 | 3.5 | 10.4 | 0.00 | 0.05 | 0.04 | 94 | 1017.0 |
| 20260906064926 | 70 | 217 | 3.5 | 8.7 | 0.00 | 0.05 | 0.04 | 94 | 1017.0 |
| 20260906064826 | 70 | 195 | 3.5 | 8.7 | 0.00 | 0.05 | 0.04 | 94 | 1017.0 |
| 20260906064726 | 70 | 214 | 3.5 | 7.8 | 0.00 | 0.05 | 0.04 | 94 | 1017.1 |
| 20260906064624 | 70 | 214 | 3.5 | 7.8 | 0.00 | 0.05 | 0.04 | 94 | 1017.0 |
| 20260906064525 | 70 | 209 | 3.5 | 8.7 | 0.00 | 0.05 | 0.04 | 94 | 1017.1 |
| 20260906064425 | 70 | 246 | 3.5 | 8.7 | 0.00 | 0.05 | 0.04 | 94 | 1017.1 |
| 20260906064325 | 70 | 207 | 3.5 | 8.7 | 0.00 | 0.05 | 0.04 | 94 | 1017.1 |
| 20260906064224 | 70 | 231 | 3.5 | 8.7 | 0.00 | 0.05 | 0.04 | 94 | 1017.0 |
| 20260906064140 | 70 | 206 | 3.5 | 8.7 | 0.00 | 0.05 | 0.04 | 94 | 1017.2 |
| 20260906064126 | 70 | 225 | 3.5 | 8.7 | 0.00 | 0.05 | 0.04 | 94 | 1017.0 |
| 20260906064120 | 70 | 206 | 2.6 | 8.7 | 0.00 | 0.05 | 0.04 | 94 | 1017.2 |
| 20260906064101 | 70 | 220 | 3.5 | 8.7 | 0.00 | 0.05 | 0.04 | 94 | 1017.2 |
| 20260906063721 | 70 | 210 | 2.6 | 8.7 | 0.00 | 0.05 | 0.04 | 94 | 1017.2 |
| 20260906063623 | 70 | 210 | 2.6 | 8.7 | 0.00 | 0.05 | 0.04 | 94 | 1017.2 |
| 20260906063522 | 70 | 210 | 2.6 | 5.2 | 0.00 | 0.05 | 0.04 | 94 | 1017.2 |
| 20260906063425 | 70 | 214 | 2.6 | 5.2 | 0.00 | 0.05 | 0.04 | 93 | 1017.2 |
| 20260906063322 | 70 | 214 | 2.6 | 5.2 | 0.00 | 0.05 | 0.04 | 93 | 1017.2 |
| 20260906063220 | 70 | 230 | 2.6 | 5.2 | 0.00 | 0.05 | 0.04 | 93 | 1017.2 |
| 20260906063118 | 70 | 234 | 1.7 | 5.2 | 0.00 | 0.05 | 0.04 | 93 | 1017.2 |
| 20260906063049 | 70 | 233 | 2.6 | 5.2 | 0.00 | 0.05 | 0.04 | 93 | 1017.3 |
| 20260906063044 | 70 | 234 | 2.6 | 4.3 | 0.00 | 0.05 | 0.04 | 93 | 1017.2 |
| 20260906063031 | 70 | 228 | 1.7 | 4.3 | 0.00 | 0.05 | 0.04 | 93 | 1017.2 |
| 20260906063008 | 70 | 228 | 1.7 | 4.3 | 0.00 | 0.05 | 0.04 | 93 | 1017.2 |
| 20260906062856 | 70 | 250 | 2.6 | 5.2 | 0.00 | 0.05 | 0.04 | 93 | 1017.2 |
| 20260906062844 | 70 | 228 | 1.7 | 4.3 | 0.00 | 0.05 | 0.04 | 93 | 1017.2 |
| 20260906062701 | 70 | 234 | 2.6 | 4.3 | 0.00 | 0.05 | 0.04 | 93 | 1017.2 |
| 20260906062349 | 70 | 241 | 2.6 | 5.2 | 0.00 | 0.05 | 0.04 | 93 | 1017.1 |
| 20260906062337 | 70 | 243 | 2.6 | 5.2 | 0.00 | 0.05 | 0.04 | 93 | 1017.1 |
| 20260906062115 | 70 | 213 | 2.6 | 5.2 | 0.00 | 0.05 | 0.04 | 93 | 1017.0 |
| 20260906062016 | 70 | 212 | 2.6 | 5.2 | 0.00 | 0.05 | 0.04 | 93 | 1017.0 |
| 20260906061920 | 70 | 219 | 2.6 | 5.2 | 0.01 | 0.05 | 0.04 | 93 | 1017.1 |
| 20260906061816 | 70 | 219 | 2.6 | 5.2 | 0.01 | 0.05 | 0.04 | 93 | 1017.0 |
| 20260906061715 | 70 | 219 | 2.6 | 5.2 | 0.01 | 0.05 | 0.04 | 93 | 1017.0 |
| 20260906061613 | 70 | 219 | 2.6 | 5.2 | 0.01 | 0.05 | 0.04 | 93 | 1017.0 |
| 20260906061512 | 70 | 220 | 2.6 | 5.2 | 0.01 | 0.05 | 0.04 | 93 | 1016.9 |
| 20260906061445 | 70 | 217 | 2.6 | 5.2 | 0.01 | 0.05 | 0.04 | 93 | 1016.8 |
| 20260906061436 | 70 | 217 | 2.6 | 5.2 | 0.01 | 0.05 | 0.04 | 93 | 1016.9 |
| 20260906061209 | 70 | 217 | 2.6 | 5.2 | 0.01 | 0.05 | 0.04 | 93 | 1016.9 |
| 20260906061103 | 70 | 207 | 2.6 | 5.2 | 0.01 | 0.05 | 0.04 | 93 | 1016.8 |
| 20260906061005 | 70 | 205 | 2.6 | 4.3 | 0.01 | 0.05 | 0.04 | 93 | 1016.8 |
| 20260906060904 | 70 | 209 | 2.6 | 4.3 | 0.01 | 0.05 | 0.04 | 93 | 1016.8 |
| 20260906060804 | 70 | 217 | 2.6 | 5.2 | 0.01 | 0.05 | 0.04 | 93 | 1016.8 |
| 20260906060703 | 70 | 209 | 2.6 | 5.2 | 0.02 | 0.05 | 0.04 | 93 | 1016.8 |
| 20260906060600 | 70 | 224 | 2.6 | 6.1 | 0.02 | 0.05 | 0.04 | 93 | 1016.8 |
| 20260906060456 | 70 | 234 | 2.6 | 6.1 | 0.02 | 0.05 | 0.04 | 93 | 1016.8 |
| 20260906060354 | 70 | 234 | 2.6 | 6.1 | 0.02 | 0.05 | 0.04 | 92 | 1016.9 |
| 20260906060254 | 70 | 234 | 2.6 | 6.1 | 0.03 | 0.05 | 0.04 | 92 | 1016.8 |
| 20260906060153 | 70 | 234 | 2.6 | 6.1 | 0.04 | 0.05 | 0.04 | 92 | 1016.9 |
| 20260906060052 | 70 | 234 | 2.6 | 6.1 | 0.04 | 0.05 | 0.04 | 92 | 1016.9 |
| 20260906055949 | 71 | 242 | 2.6 | 6.1 | 0.04 | 0.05 | 0.04 | 92 | 1017.0 |
| 20260906055926 | 70 | 208 | 2.6 | 6.1 | 0.05 | 0.05 | 0.04 | 92 | 1017.1 |
| 20260906055916 | 71 | 247 | 2.6 | 6.1 | 0.05 | 0.05 | 0.04 | 92 | 1017.1 |
| 20260906055647 | 71 | 227 | 1.7 | 6.1 | 0.05 | 0.05 | 0.04 | 92 | 1017.1 |
| 20260906055618 | 70 | 284 | 1.7 | 4.3 | 0.05 | 0.05 | 0.04 | 92 | 1017.1 |
| 20260906055605 | 70 | 227 | 1.7 | 4.3 | 0.05 | 0.05 | 0.04 | 92 | 1017.2 |
| 20260906055342 | 70 | 226 | 1.7 | 4.3 | 0.05 | 0.05 | 0.04 | 92 | 1017.2 |
| 20260906055240 | 70 | 223 | 1.7 | 4.3 | 0.05 | 0.05 | 0.04 | 92 | 1017.2 |
| 20260906055147 | 70 | 30 | 2.6 | 7.8 | 0.05 | 0.05 | 0.04 | 92 | 1017.3 |
| 20260906055037 | 70 | 31 | 2.6 | 10.4 | 0.05 | 0.05 | 0.04 | 92 | 1017.2 |
| 20260906054934 | 70 | 31 | 3.5 | 10.4 | 0.05 | 0.05 | 0.04 | 92 | 1017.2 |
| 20260906054835 | 70 | 31 | 3.5 | 10.4 | 0.05 | 0.05 | 0.04 | 92 | 1017.2 |
| 20260906054732 | 70 | 26 | 3.5 | 10.4 | 0.05 | 0.05 | 0.04 | 92 | 1017.3 |
| 20260906054634 | 70 | 44 | 3.5 | 10.4 | 0.05 | 0.05 | 0.04 | 92 | 1017.4 |
| 20260906054531 | 70 | 46 | 4.3 | 10.4 | 0.05 | 0.05 | 0.04 | 92 | 1017.4 |
| 20260906054430 | 70 | 49 | 4.3 | 10.4 | 0.05 | 0.05 | 0.04 | 92 | 1017.4 |
| 20260906054402 | 70 | 39 | 5.2 | 10.4 | 0.05 | 0.05 | 0.04 | 92 | 1017.4 |
| 20260906054351 | 70 | 55 | 4.3 | 10.4 | 0.05 | 0.05 | 0.04 | 92 | 1017.4 |
| 20260906054129 | 70 | 51 | 5.2 | 13.9 | 0.05 | 0.05 | 0.04 | 92 | 1017.4 |
| 20260906054029 | 70 | 33 | 5.2 | 13.9 | 0.05 | 0.05 | 0.04 | 92 | 1017.4 |
| 20260906053931 | 70 | 69 | 5.2 | 13.9 | 0.05 | 0.05 | 0.04 | 92 | 1017.3 |
| 20260906053830 | 70 | 51 | 5.2 | 13.9 | 0.05 | 0.05 | 0.04 | 92 | 1017.3 |
| 20260906053730 | 70 | 5 | 6.1 | 13.9 | 0.05 | 0.05 | 0.04 | 92 | 1017.3 |
| 20260906053628 | 70 | 28 | 6.1 | 13.9 | 0.05 | 0.05 | 0.04 | 92 | 1017.3 |
| 20260906053529 | 70 | 46 | 6.1 | 13.9 | 0.05 | 0.05 | 0.04 | 92 | 1017.2 |
| 20260906053428 | 71 | 49 | 6.1 | 13.9 | 0.05 | 0.05 | 0.04 | 92 | 1017.4 |
| 20260906053354 | 70 | 61 | 6.1 | 13.0 | 0.05 | 0.05 | 0.04 | 92 | 1017.4 |
| 20260906053343 | 71 | 56 | 6.1 | 13.9 | 0.05 | 0.05 | 0.04 | 92 | 1017.4 |
| 20260906053200 | 71 | 40 | 6.1 | 13.0 | 0.05 | 0.05 | 0.04 | 92 | 1017.4 |
| 20260906053148 | 71 | 22 | 6.1 | 13.0 | 0.05 | 0.05 | 0.04 | 92 | 1017.4 |
| 20260906052923 | 71 | 62 | 6.1 | 13.0 | 0.05 | 0.05 | 0.04 | 92 | 1017.5 |
| 20260906052820 | 71 | 38 | 6.1 | 13.0 | 0.05 | 0.05 | 0.04 | 92 | 1017.5 |
| 20260906052720 | 71 | 55 | 6.1 | 13.0 | 0.05 | 0.05 | 0.04 | 92 | 1017.7 |
| 20260906052701 | 71 | 51 | 6.1 | 13.0 | 0.05 | 0.05 | 0.04 | 92 | 1017.7 |
| 20260906052648 | 71 | 39 | 6.1 | 13.0 | 0.05 | 0.05 | 0.04 | 92 | 1017.7 |
| 20260906052455 | 71 | 31 | 6.1 | 14.8 | 0.05 | 0.05 | 0.04 | 91 | 1018.0 |
| 20260906052443 | 71 | 46 | 6.1 | 14.8 | 0.05 | 0.05 | 0.04 | 91 | 1017.8 |
| 20260906052227 | 71 | 49 | 6.1 | 14.8 | 0.05 | 0.05 | 0.04 | 91 | 1018.0 |
| 20260906052119 | 71 | 31 | 6.1 | 14.8 | 0.05 | 0.05 | 0.04 | 91 | 1018.0 |
| 20260906052033 | 71 | 65 | 6.1 | 14.8 | 0.05 | 0.05 | 0.04 | 91 | 1018.0 |
| 20260906051921 | 71 | 33 | 6.1 | 14.8 | 0.04 | 0.04 | 0.04 | 91 | 1018.1 |
| 20260906051821 | 71 | 40 | 6.1 | 14.8 | 0.04 | 0.04 | 0.03 | 91 | 1018.1 |
| 20260906051721 | 71 | 69 | 6.1 | 14.8 | 0.04 | 0.04 | 0.03 | 90 | 1018.1 |
| 20260906051614 | 71 | 42 | 6.1 | 14.8 | 0.04 | 0.04 | 0.03 | 90 | 1018.1 |
| 20260906051514 | 71 | 32 | 5.2 | 14.8 | 0.04 | 0.04 | 0.03 | 90 | 1018.2 |
| 20260906051447 | 71 | 51 | 6.1 | 13.9 | 0.04 | 0.04 | 0.03 | 90 | 1018.2 |
| 20260906051313 | 71 | 43 | 6.1 | 13.9 | 0.04 | 0.04 | 0.03 | 90 | 1018.2 |
| 20260906051215 | 72 | 46 | 6.1 | 13.9 | 0.04 | 0.04 | 0.03 | 89 | 1018.2 |
| 20260906051110 | 72 | 44 | 6.1 | 14.8 | 0.04 | 0.04 | 0.03 | 89 | 1018.2 |
| 20260906051012 | 72 | 53 | 6.1 | 14.8 | 0.04 | 0.04 | 0.03 | 89 | 1018.1 |
| 20260906050949 | 72 | 37 | 6.1 | 14.8 | 0.03 | 0.03 | 0.03 | 88 | 1018.1 |
| 20260906050943 | 73 | 60 | 6.1 | 14.8 | 0.03 | 0.03 | 0.02 | 87 | 1018.2 |
| 20260906050928 | 72 | 5 | 6.1 | 14.8 | 0.04 | 0.04 | 0.03 | 88 | 1018.1 |
| 20260906050858 | 72 | 24 | 6.1 | 14.8 | 0.04 | 0.04 | 0.03 | 88 | 1018.1 |
| 20260906050502 | 73 | 33 | 6.1 | 14.8 | 0.03 | 0.03 | 0.02 | 86 | 1018.2 |
| 20260906050401 | 73 | 32 | 7.0 | 14.8 | 0.03 | 0.03 | 0.02 | 86 | 1018.1 |
| 20260906050302 | 73 | 40 | 7.0 | 14.8 | 0.02 | 0.02 | 0.02 | 86 | 1018.1 |
| 20260906050203 | 74 | 5 | 6.1 | 14.8 | 0.01 | 0.01 | 0.01 | 85 | 1018.1 |
| 20260906050103 | 74 | 31 | 7.0 | 14.8 | 0.01 | 0.01 | 0.00 | 85 | 1018.0 |
| 20260906050002 | 74 | 53 | 7.0 | 14.8 | 0.01 | 0.01 | 0.01 | 85 | 1017.9 |
| 20260906045900 | 74 | 80 | 7.0 | 14.8 | 0.00 | 0.00 | 0.01 | 84 | 1017.9 |
| 20260906045758 | 74 | 53 | 7.0 | 14.8 | 0.00 | 0.00 | 0.00 | 83 | 1017.8 |
| 20260906045700 | 75 | 48 | 6.1 | 14.8 | 0.00 | 0.00 | 0.00 | 83 | 1017.7 |
| 20260906045600 | 75 | 328 | 6.1 | 14.8 | 0.00 | 0.00 | 0.00 | 82 | 1017.7 |
| 20260906045459 | 75 | 34 | 6.1 | 14.8 | 0.00 | 0.00 | 0.00 | 81 | 1017.7 |
| 20260906045358 | 75 | 38 | 5.2 | 14.8 | 0.00 | 0.00 | 0.00 | 81 | 1017.7 |
| 20260906045330 | 75 | 13 | 5.2 | 13.9 | 0.00 | 0.00 | 0.00 | 81 | 1017.7 |
| 20260906045320 | 75 | 348 | 5.2 | 14.8 | 0.00 | 0.00 | 0.00 | 81 | 1017.7 |
| 20260906045057 | 76 | 40 | 5.2 | 13.9 | 0.00 | 0.00 | 0.00 | 80 | 1017.7 |
| 20260906045034 | 76 | 331 | 5.2 | 13.9 | 0.00 | 0.00 | 0.00 | 79 | 1017.7 |
| 20260906045021 | 76 | 309 | 5.2 | 13.9 | 0.00 | 0.00 | 0.00 | 80 | 1017.7 |
| 20260906044816 | 76 | 348 | 6.1 | 13.9 | 0.00 | 0.00 | 0.00 | 79 | 1017.7 |
| 20260906044810 | 77 | 336 | 5.2 | 13.9 | 0.00 | 0.00 | 0.00 | 78 | 1017.7 |
| 20260906044759 | 76 | 269 | 5.2 | 13.9 | 0.00 | 0.00 | 0.00 | 80 | 1017.7 |
| 20260906044733 | 76 | 42 | 5.2 | 13.9 | 0.00 | 0.00 | 0.00 | 79 | 1017.7 |
| 20260906044344 | 77 | 337 | 5.2 | 12.2 | 0.00 | 0.00 | 0.00 | 77 | 1017.8 |
| 20260906044244 | 77 | 336 | 5.2 | 12.2 | 0.00 | 0.00 | 0.00 | 77 | 1017.7 |
| 20260906044145 | 78 | 0 | 5.2 | 12.2 | 0.00 | 0.00 | 0.00 | 77 | 1017.8 |
| 20260906044046 | 78 | 42 | 5.2 | 12.2 | 0.00 | 0.00 | 0.00 | 76 | 1017.8 |
| 20260906043946 | 78 | 315 | 5.2 | 11.3 | 0.00 | 0.00 | 0.00 | 75 | 1017.8 |
| 20260906043843 | 79 | 325 | 4.3 | 11.3 | 0.00 | 0.00 | 0.00 | 74 | 1017.7 |
| 20260906043817 | 80 | 321 | 3.5 | 11.3 | 0.00 | 0.00 | 0.00 | 72 | 1017.6 |
| 20260906043805 | 79 | 348 | 3.5 | 11.3 | 0.00 | 0.00 | 0.00 | 73 | 1017.7 |
| 20260906043547 | 80 | 326 | 2.6 | 8.7 | 0.00 | 0.00 | 0.00 | 71 | 1017.6 |
| 20260906043440 | 80 | 40 | 2.6 | 8.7 | 0.00 | 0.00 | 0.00 | 71 | 1017.6 |
| 20260906043336 | 80 | 348 | 1.7 | 8.7 | 0.00 | 0.00 | 0.00 | 69 | 1017.7 |
| 20260906043239 | 80 | 337 | 1.7 | 7.8 | 0.00 | 0.00 | 0.00 | 68 | 1017.6 |
| 20260906043143 | 80 | 323 | 0.9 | 3.5 | 0.00 | 0.00 | 0.00 | 69 | 1017.5 |
| 20260906043036 | 80 | 215 | 0.9 | 2.6 | 0.00 | 0.00 | 0.00 | 68 | 1017.4 |
| 20260906042937 | 80 | 215 | 0.9 | 2.6 | 0.00 | 0.00 | 0.00 | 68 | 1017.3 |
| 20260906042835 | 80 | 215 | 0.9 | 2.6 | 0.00 | 0.00 | 0.00 | 68 | 1017.2 |
| 20260906042736 | 80 | 215 | 0.9 | 2.6 | 0.00 | 0.00 | 0.00 | 68 | 1017.2 |
| 20260906042635 | 80 | 215 | 0.9 | 2.6 | 0.00 | 0.00 | 0.00 | 68 | 1017.2 |
| 20260906042534 | 80 | 215 | 0.9 | 2.6 | 0.00 | 0.00 | 0.00 | 69 | 1017.2 |
| 20260906042440 | 80 | 215 | 0.9 | 2.6 | 0.00 | 0.00 | 0.00 | 69 | 1017.2 |
| 20260906042403 | 80 | 215 | 0.9 | 2.6 | 0.00 | 0.00 | 0.00 | 69 | 1017.2 |
| 20260906042354 | 80 | 215 | 0.9 | 2.6 | 0.00 | 0.00 | 0.00 | 69 | 1017.1 |
| 20260906042134 | 80 | 215 | 0.9 | 2.6 | 0.00 | 0.00 | 0.00 | 69 | 1017.1 |
| 20260906042106 | 80 | 215 | 0.9 | 2.6 | 0.00 | 0.00 | 0.00 | 69 | 1017.1 |
| 20260906042056 | 80 | 215 | 0.9 | 2.6 | 0.00 | 0.00 | 0.00 | 69 | 1017.1 |
| 20260906041831 | 80 | 215 | 0.9 | 1.7 | 0.00 | 0.00 | 0.00 | 69 | 1017.1 |
| 20260906041729 | 80 | 215 | 0.9 | 1.7 | 0.00 | 0.00 | 0.00 | 69 | 1017.0 |
| 20260906041630 | 80 | 215 | 0.9 | 1.7 | 0.00 | 0.00 | 0.00 | 69 | 1017.0 |
| 20260906041530 | 80 | 215 | 0.9 | 1.7 | 0.00 | 0.00 | 0.00 | 69 | 1017.0 |
| 20260906041440 | 80 | 215 | 0.9 | 1.7 | 0.00 | 0.00 | 0.00 | 69 | 1017.0 |
| 20260906041425 | 80 | 215 | 0.9 | 2.6 | 0.00 | 0.00 | 0.00 | 69 | 1017.2 |
| 20260906041419 | 80 | 215 | 0.9 | 2.6 | 0.00 | 0.00 | 0.00 | 69 | 1017.2 |
| 20260906041359 | 80 | 215 | 0.9 | 1.7 | 0.00 | 0.00 | 0.00 | 69 | 1017.0 |
| 20260906041231 | 80 | 215 | 0.9 | 2.6 | 0.00 | 0.00 | 0.00 | 69 | 1017.1 |
| 20260906041205 | 80 | 215 | 0.9 | 2.6 | 0.00 | 0.00 | 0.00 | 69 | 1017.2 |
| 20260906041022 | 80 | 215 | 0.9 | 2.6 | 0.00 | 0.00 | 0.00 | 69 | 1017.2 |
| 20260906040853 | 80 | 215 | 0.9 | 2.6 | 0.00 | 0.00 | 0.00 | 69 | 1017.2 |
| 20260906040634 | 80 | 215 | 0.9 | 2.6 | 0.00 | 0.00 | 0.00 | 69 | 1017.2 |
| 20260906040528 | 80 | 215 | 0.9 | 2.6 | 0.00 | 0.00 | 0.00 | 69 | 1017.2 |
| 20260906040422 | 80 | 215 | 0.9 | 2.6 | 0.00 | 0.00 | 0.00 | 69 | 1017.3 |
| 20260906040325 | 80 | 215 | 0.9 | 2.6 | 0.00 | 0.00 | 0.00 | 69 | 1017.3 |
| 20260906040219 | 80 | 215 | 0.9 | 2.6 | 0.00 | 0.00 | 0.00 | 69 | 1017.3 |
| 20260906040201 | 80 | 215 | 0.0 | 2.6 | 0.00 | 0.00 | 0.00 | 69 | 1017.2 |
| 20260906040147 | 80 | 215 | 0.9 | 2.6 | 0.00 | 0.00 | 0.00 | 69 | 1017.3 |
| 20260906035915 | 80 | 215 | 0.0 | 2.6 | 0.00 | 0.00 | 0.00 | 69 | 1017.3 |
| 20260906035821 | 80 | 215 | 0.0 | 2.6 | 0.00 | 0.00 | 0.00 | 69 | 1017.3 |
| 20260906035714 | 80 | 215 | 0.0 | 2.6 | 0.00 | 0.00 | 0.00 | 70 | 1017.3 |
| 20260906035701 | 80 | 215 | 0.0 | 1.7 | 0.00 | 0.00 | 0.00 | 69 | 1017.4 |
| 20260906035645 | 80 | 215 | 0.0 | 1.7 | 0.00 | 0.00 | 0.00 | 69 | 1017.3 |
| 20260906035408 | 79 | 215 | 0.0 | 0.9 | 0.00 | 0.00 | 0.00 | 70 | 1017.4 |
| 20260906035306 | 79 | 215 | 0.0 | 0.9 | 0.00 | 0.00 | 0.00 | 70 | 1017.5 |
| 20260906035208 | 79 | 215 | 0.0 | 0.9 | 0.00 | 0.00 | 0.00 | 70 | 1017.5 |
| 20260906035156 | 79 | 215 | 0.9 | 1.7 | 0.00 | 0.00 | 0.00 | 70 | 1017.6 |
| 20260906035140 | 79 | 215 | 0.0 | 1.7 | 0.00 | 0.00 | 0.00 | 70 | 1017.5 |
| 20260906034933 | 79 | 215 | 0.9 | 1.7 | 0.00 | 0.00 | 0.00 | 70 | 1017.6 |
| 20260906034923 | 79 | 215 | 0.9 | 1.7 | 0.00 | 0.00 | 0.00 | 70 | 1017.6 |
| 20260906034859 | 79 | 215 | 0.9 | 1.7 | 0.00 | 0.00 | 0.00 | 70 | 1017.6 |
| 20260906034837 | 79 | 215 | 0.9 | 1.7 | 0.00 | 0.00 | 0.00 | 70 | 1017.6 |
| 20260906034650 | 79 | 215 | 0.9 | 1.7 | 0.00 | 0.00 | 0.00 | 70 | 1017.6 |
| 20260906034514 | 79 | 215 | 0.9 | 1.7 | 0.00 | 0.00 | 0.00 | 70 | 1017.6 |
| 20260906034246 | 79 | 215 | 0.9 | 1.7 | 0.00 | 0.00 | 0.00 | 70 | 1017.6 |
| 20260906034147 | 79 | 215 | 0.9 | 1.7 | 0.00 | 0.00 | 0.00 | 70 | 1017.6 |
| 20260906034043 | 79 | 215 | 0.9 | 1.7 | 0.00 | 0.00 | 0.00 | 70 | 1017.5 |
| 20260906033943 | 79 | 215 | 0.9 | 2.6 | 0.00 | 0.00 | 0.00 | 70 | 1017.4 |
| 20260906033836 | 80 | 215 | 0.9 | 2.6 | 0.00 | 0.00 | 0.00 | 71 | 1017.4 |
| 20260906033826 | 80 | 215 | 0.9 | 2.6 | 0.00 | 0.00 | 0.00 | 71 | 1017.5 |
| 20260906033805 | 80 | 215 | 0.9 | 2.6 | 0.00 | 0.00 | 0.00 | 71 | 1017.4 |
| 20260906033535 | 80 | 215 | 0.9 | 2.6 | 0.00 | 0.00 | 0.00 | 71 | 1017.4 |
| 20260906033437 | 80 | 215 | 0.9 | 2.6 | 0.00 | 0.00 | 0.00 | 71 | 1017.4 |
| 20260906033358 | 80 | 215 | 0.0 | 2.6 | 0.00 | 0.00 | 0.00 | 71 | 1017.4 |
| 20260906033345 | 80 | 215 | 0.9 | 2.6 | 0.00 | 0.00 | 0.00 | 71 | 1017.4 |
| 20260906033316 | 80 | 215 | 0.9 | 2.6 | 0.00 | 0.00 | 0.00 | 71 | 1017.4 |
| 20260906033149 | 80 | 215 | 0.9 | 2.6 | 0.00 | 0.00 | 0.00 | 71 | 1017.4 |
| 20260906032931 | 80 | 215 | 0.0 | 1.7 | 0.00 | 0.00 | 0.00 | 71 | 1017.3 |
| 20260906032821 | 80 | 215 | 0.0 | 0.9 | 0.00 | 0.00 | 0.00 | 71 | 1017.3 |
| 20260906032721 | 80 | 215 | 0.0 | 0.0 | 0.00 | 0.00 | 0.00 | 71 | 1017.2 |
| 20260906032622 | 80 | 215 | 0.0 | 0.0 | 0.00 | 0.00 | 0.00 | 71 | 1017.2 |
| 20260906032522 | 80 | 215 | 0.0 | 0.0 | 0.00 | 0.00 | 0.00 | 71 | 1017.1 |
| 20260906032420 | 80 | 215 | 0.0 | 0.0 | 0.00 | 0.00 | 0.00 | 71 | 1017.1 |
| 20260906032324 | 80 | 215 | 0.0 | 0.0 | 0.00 | 0.00 | 0.00 | 71 | 1017.0 |
| 20260906032221 | 80 | 215 | 0.0 | 0.0 | 0.00 | 0.00 | 0.00 | 71 | 1017.0 |
| 20260906032123 | 80 | 215 | 0.0 | 0.0 | 0.00 | 0.00 | 0.00 | 71 | 1017.1 |
| 20260906032026 | 80 | 215 | 0.0 | 0.0 | 0.00 | 0.00 | 0.00 | 71 | 1017.1 |
| 20260906031928 | 80 | 215 | 0.0 | 0.0 | 0.00 | 0.00 | 0.00 | 71 | 1017.0 |
| 20260906031829 | 80 | 215 | 0.0 | 0.0 | 0.00 | 0.00 | 0.00 | 71 | 1017.0 |
| 20260906031803 | 80 | 215 | 0.0 | 0.9 | 0.00 | 0.00 | 0.00 | 71 | 1017.0 |
| 20260906031746 | 80 | 215 | 0.0 | 0.0 | 0.00 | 0.00 | 0.00 | 71 | 1017.0 |
| 20260906031539 | 80 | 215 | 0.0 | 1.7 | 0.00 | 0.00 | 0.00 | 71 | 1016.9 |
| 20260906031421 | 80 | 215 | 0.0 | 1.7 | 0.00 | 0.00 | 0.00 | 71 | 1017.0 |
| 20260906031321 | 80 | 215 | 0.0 | 1.7 | 0.00 | 0.00 | 0.00 | 70 | 1017.1 |
| 20260906031223 | 80 | 215 | 0.0 | 1.7 | 0.00 | 0.00 | 0.00 | 70 | 1017.1 |
| 20260906031123 | 80 | 215 | 0.0 | 1.7 | 0.00 | 0.00 | 0.00 | 70 | 1017.1 |
| 20260906031021 | 80 | 215 | 0.9 | 1.7 | 0.00 | 0.00 | 0.00 | 70 | 1017.2 |
| 20260906030921 | 79 | 215 | 0.9 | 1.7 | 0.00 | 0.00 | 0.00 | 70 | 1017.1 |
| 20260906030822 | 79 | 215 | 0.9 | 1.7 | 0.00 | 0.00 | 0.00 | 70 | 1017.0 |
| 20260906030720 | 79 | 215 | 0.9 | 1.7 | 0.00 | 0.00 | 0.00 | 70 | 1017.0 |
| 20260906030626 | 79 | 215 | 0.9 | 1.7 | 0.00 | 0.00 | 0.00 | 70 | 1017.0 |
| 20260906030517 | 79 | 215 | 0.9 | 1.7 | 0.00 | 0.00 | 0.00 | 70 | 1017.0 |
| 20260906030425 | 79 | 215 | 0.9 | 1.7 | 0.00 | 0.00 | 0.00 | 70 | 1017.0 |
| 20260906030348 | 79 | 215 | 0.0 | 1.7 | 0.00 | 0.00 | 0.00 | 70 | 1017.0 |
| 20260906030338 | 79 | 215 | 0.9 | 1.7 | 0.00 | 0.00 | 0.00 | 70 | 1017.0 |
| 20260906030114 | 79 | 215 | 0.0 | 1.7 | 0.00 | 0.00 | 0.00 | 70 | 1017.1 |
| 20260906030017 | 79 | 215 | 0.0 | 1.7 | 0.00 | 0.00 | 0.00 | 70 | 1017.1 |
| 20260906025912 | 79 | 215 | 0.0 | 1.7 | 0.00 | 0.00 | 0.00 | 70 | 1017.1 |
| 20260906025827 | 79 | 215 | 0.0 | 1.7 | 0.00 | 0.00 | 0.00 | 71 | 1017.2 |
| 20260906025823 | 79 | 215 | 0.0 | 1.7 | 0.00 | 0.00 | 0.00 | 71 | 1017.1 |
| 20260906025812 | 79 | 215 | 0.0 | 1.7 | 0.00 | 0.00 | 0.00 | 70 | 1017.1 |
| 20260906025750 | 79 | 215 | 0.0 | 1.7 | 0.00 | 0.00 | 0.00 | 70 | 1017.1 |
| 20260906025411 | 79 | 215 | 0.9 | 1.7 | 0.00 | 0.00 | 0.00 | 71 | 1017.1 |
| 20260906025308 | 79 | 215 | 0.9 | 2.6 | 0.00 | 0.00 | 0.00 | 72 | 1017.1 |
| 20260906025211 | 79 | 215 | 0.9 | 2.6 | 0.00 | 0.00 | 0.00 | 72 | 1017.1 |
| 20260906025111 | 79 | 215 | 0.9 | 2.6 | 0.00 | 0.00 | 0.00 | 72 | 1017.0 |
| 20260906025010 | 79 | 215 | 0.9 | 2.6 | 0.00 | 0.00 | 0.00 | 72 | 1017.0 |
| 20260906024910 | 79 | 215 | 0.9 | 2.6 | 0.00 | 0.00 | 0.00 | 72 | 1017.1 |
| 20260906024809 | 79 | 215 | 0.9 | 2.6 | 0.00 | 0.00 | 0.00 | 71 | 1017.1 |
| 20260906024702 | 79 | 215 | 0.9 | 2.6 | 0.00 | 0.00 | 0.00 | 71 | 1017.0 |
| 20260906024602 | 79 | 215 | 0.9 | 2.6 | 0.00 | 0.00 | 0.00 | 71 | 1017.1 |
| 20260906024502 | 79 | 215 | 1.7 | 3.5 | 0.00 | 0.00 | 0.00 | 72 | 1017.1 |
| 20260906024403 | 79 | 215 | 1.7 | 3.5 | 0.00 | 0.00 | 0.00 | 72 | 1017.1 |
| 20260906024341 | 79 | 215 | 1.7 | 4.3 | 0.00 | 0.00 | 0.00 | 71 | 1017.1 |
| 20260906024330 | 79 | 215 | 1.7 | 3.5 | 0.00 | 0.00 | 0.00 | 71 | 1017.1 |
| 20260906024100 | 79 | 215 | 1.7 | 4.3 | 0.00 | 0.00 | 0.00 | 71 | 1017.1 |
| 20260906024033 | 79 | 215 | 1.7 | 4.3 | 0.00 | 0.00 | 0.00 | 71 | 1017.1 |
| 20260906024021 | 79 | 215 | 1.7 | 4.3 | 0.00 | 0.00 | 0.00 | 71 | 1017.1 |
| 20260906023758 | 79 | 215 | 1.7 | 4.3 | 0.00 | 0.00 | 0.00 | 71 | 1017.1 |
| 20260906023659 | 80 | 219 | 1.7 | 4.3 | 0.00 | 0.00 | 0.00 | 71 | 1017.1 |
| 20260906023559 | 80 | 219 | 1.7 | 4.3 | 0.00 | 0.00 | 0.00 | 71 | 1017.1 |
| 20260906023530 | 80 | 219 | 1.7 | 4.3 | 0.00 | 0.00 | 0.00 | 71 | 1017.0 |
| 20260906023519 | 80 | 219 | 1.7 | 4.3 | 0.00 | 0.00 | 0.00 | 71 | 1017.0 |
| 20260906023259 | 80 | 222 | 1.7 | 4.3 | 0.00 | 0.00 | 0.00 | 71 | 1017.1 |
| 20260906023158 | 80 | 244 | 1.7 | 4.3 | 0.00 | 0.00 | 0.00 | 71 | 1017.1 |
| 20260906023100 | 80 | 215 | 1.7 | 2.6 | 0.00 | 0.00 | 0.00 | 71 | 1017.1 |
| 20260906023000 | 80 | 215 | 1.7 | 2.6 | 0.00 | 0.00 | 0.00 | 71 | 1017.2 |
| 20260906022858 | 80 | 215 | 1.7 | 2.6 | 0.00 | 0.00 | 0.00 | 71 | 1017.1 |
| 20260906022759 | 80 | 215 | 1.7 | 2.6 | 0.00 | 0.00 | 0.00 | 70 | 1017.1 |
| 20260906022659 | 80 | 215 | 1.7 | 2.6 | 0.00 | 0.00 | 0.00 | 70 | 1017.1 |
| 20260906022630 | 80 | 215 | 1.7 | 4.3 | 0.00 | 0.00 | 0.00 | 70 | 1016.8 |
| 20260906022620 | 80 | 215 | 1.7 | 2.6 | 0.00 | 0.00 | 0.00 | 70 | 1017.0 |
| 20260906022559 | 80 | 215 | 1.7 | 2.6 | 0.00 | 0.00 | 0.00 | 70 | 1016.9 |
| 20260906022427 | 80 | 215 | 1.7 | 4.3 | 0.00 | 0.00 | 0.00 | 70 | 1016.9 |
| 20260906022200 | 80 | 215 | 1.7 | 4.3 | 0.00 | 0.00 | 0.00 | 70 | 1016.8 |
| 20260906022058 | 80 | 215 | 1.7 | 4.3 | 0.00 | 0.00 | 0.00 | 70 | 1016.8 |
| 20260906021958 | 80 | 215 | 1.7 | 4.3 | 0.00 | 0.00 | 0.00 | 70 | 1016.9 |
| 20260906021858 | 80 | 215 | 1.7 | 4.3 | 0.00 | 0.00 | 0.00 | 69 | 1016.9 |
| 20260906021759 | 80 | 215 | 1.7 | 4.3 | 0.00 | 0.00 | 0.00 | 69 | 1016.8 |
| 20260906021700 | 80 | 215 | 1.7 | 4.3 | 0.00 | 0.00 | 0.00 | 69 | 1016.8 |
| 20260906021600 | 80 | 215 | 0.9 | 4.3 | 0.00 | 0.00 | 0.00 | 68 | 1016.8 |
| 20260906021459 | 80 | 215 | 0.9 | 4.3 | 0.00 | 0.00 | 0.00 | 68 | 1016.7 |
| 20260906021359 | 80 | 214 | 0.9 | 3.5 | 0.00 | 0.00 | 0.00 | 69 | 1016.5 |
| 20260906021259 | 80 | 208 | 0.9 | 3.5 | 0.00 | 0.00 | 0.00 | 69 | 1016.5 |
| 20260906021158 | 80 | 237 | 0.9 | 2.6 | 0.00 | 0.00 | 0.00 | 69 | 1016.5 |
| 20260906021101 | 80 | 234 | 0.9 | 1.7 | 0.00 | 0.00 | 0.00 | 69 | 1016.5 |
| 20260906020959 | 80 | 234 | 0.9 | 1.7 | 0.00 | 0.00 | 0.00 | 69 | 1016.4 |
| 20260906020859 | 80 | 234 | 0.9 | 1.7 | 0.00 | 0.00 | 0.00 | 69 | 1016.4 |
| 20260906020801 | 80 | 234 | 0.9 | 1.7 | 0.00 | 0.00 | 0.00 | 69 | 1016.5 |
| 20260906020657 | 79 | 234 | 0.9 | 1.7 | 0.00 | 0.00 | 0.00 | 69 | 1016.5 |
| 20260906020557 | 79 | 234 | 0.9 | 1.7 | 0.00 | 0.00 | 0.00 | 69 | 1016.5 |
| 20260906020533 | 79 | 234 | 1.7 | 2.6 | 0.00 | 0.00 | 0.00 | 69 | 1016.5 |
| 20260906020520 | 79 | 234 | 1.7 | 2.6 | 0.00 | 0.00 | 0.00 | 69 | 1016.5 |
| 20260906020255 | 79 | 234 | 1.7 | 2.6 | 0.00 | 0.00 | 0.00 | 70 | 1016.5 |
| 20260906020156 | 79 | 234 | 1.7 | 2.6 | 0.00 | 0.00 | 0.00 | 70 | 1016.5 |
| 20260906020116 | 79 | 233 | 0.9 | 2.6 | 0.00 | 0.00 | 0.00 | 70 | 1016.4 |
| 20260906020100 | 79 | 233 | 0.9 | 2.6 | 0.00 | 0.00 | 0.00 | 70 | 1016.5 |
| 20260906020042 | 79 | 233 | 0.9 | 2.6 | 0.00 | 0.00 | 0.00 | 70 | 1016.4 |
| 20260906015753 | 79 | 233 | 0.9 | 2.6 | 0.00 | 0.00 | 0.00 | 70 | 1016.3 |
| 20260906015651 | 79 | 233 | 0.9 | 2.6 | 0.00 | 0.00 | 0.00 | 70 | 1016.3 |
| 20260906015551 | 79 | 233 | 0.9 | 2.6 | 0.00 | 0.00 | 0.00 | 70 | 1016.3 |
| 20260906015451 | 79 | 233 | 0.9 | 2.6 | 0.00 | 0.00 | 0.00 | 70 | 1016.3 |
| 20260906015350 | 79 | 233 | 0.9 | 2.6 | 0.00 | 0.00 | 0.00 | 70 | 1016.2 |
| 20260906015251 | 79 | 233 | 0.9 | 1.7 | 0.00 | 0.00 | 0.00 | 70 | 1016.1 |
| 20260906015153 | 79 | 233 | 0.9 | 2.6 | 0.00 | 0.00 | 0.00 | 70 | 1016.2 |
| 20260906015124 | 79 | 233 | 0.9 | 2.6 | 0.00 | 0.00 | 0.00 | 70 | 1016.1 |
| 20260906015113 | 79 | 233 | 0.9 | 2.6 | 0.00 | 0.00 | 0.00 | 70 | 1016.1 |
| 20260906014850 | 79 | 233 | 0.9 | 2.6 | 0.00 | 0.00 | 0.00 | 70 | 1016.0 |
| 20260906014751 | 79 | 233 | 0.9 | 2.6 | 0.00 | 0.00 | 0.00 | 71 | 1016.0 |
| 20260906014650 | 79 | 233 | 0.9 | 2.6 | 0.00 | 0.00 | 0.00 | 71 | 1016.0 |
| 20260906014552 | 79 | 233 | 0.9 | 2.6 | 0.00 | 0.00 | 0.00 | 71 | 1016.0 |
| 20260906014452 | 79 | 233 | 0.9 | 2.6 | 0.00 | 0.00 | 0.00 | 71 | 1016.1 |
| 20260906014352 | 79 | 233 | 0.9 | 2.6 | 0.00 | 0.00 | 0.00 | 71 | 1016.1 |
| 20260906014251 | 79 | 233 | 0.9 | 2.6 | 0.00 | 0.00 | 0.00 | 71 | 1016.1 |
| 20260906014152 | 79 | 232 | 0.9 | 2.6 | 0.00 | 0.00 | 0.00 | 71 | 1016.1 |
| 20260906014051 | 79 | 265 | 0.9 | 3.5 | 0.00 | 0.00 | 0.00 | 71 | 1016.1 |
| 20260906013952 | 79 | 265 | 0.9 | 3.5 | 0.00 | 0.00 | 0.00 | 71 | 1016.1 |
| 20260906013935 | 79 | 265 | 1.7 | 4.3 | 0.00 | 0.00 | 0.00 | 71 | 1016.0 |
| 20260906013921 | 79 | 265 | 1.7 | 4.3 | 0.00 | 0.00 | 0.00 | 71 | 1016.1 |
| 20260906013651 | 79 | 265 | 1.7 | 4.3 | 0.00 | 0.00 | 0.00 | 71 | 1016.0 |
| 20260906013552 | 79 | 265 | 1.7 | 4.3 | 0.00 | 0.00 | 0.00 | 71 | 1016.0 |
| 20260906013528 | 78 | 265 | 1.7 | 4.3 | 0.00 | 0.00 | 0.00 | 71 | 1015.9 |
| 20260906013516 | 79 | 265 | 1.7 | 4.3 | 0.00 | 0.00 | 0.00 | 71 | 1015.9 |
| 20260906013248 | 78 | 265 | 2.6 | 4.3 | 0.00 | 0.00 | 0.00 | 71 | 1015.9 |
| 20260906013146 | 78 | 265 | 2.6 | 4.3 | 0.00 | 0.00 | 0.00 | 71 | 1015.9 |
| 20260906013045 | 78 | 303 | 1.7 | 4.3 | 0.00 | 0.00 | 0.00 | 71 | 1016.0 |
| 20260906012951 | 78 | 306 | 1.7 | 4.3 | 0.00 | 0.00 | 0.00 | 71 | 1016.1 |
| 20260906012844 | 78 | 268 | 1.7 | 3.5 | 0.00 | 0.00 | 0.00 | 71 | 1016.1 |
| 20260906012740 | 78 | 263 | 1.7 | 3.5 | 0.00 | 0.00 | 0.00 | 72 | 1016.1 |
| 20260906012640 | 78 | 306 | 2.6 | 4.3 | 0.00 | 0.00 | 0.00 | 72 | 1016.2 |
| 20260906012541 | 78 | 293 | 2.6 | 6.1 | 0.00 | 0.00 | 0.00 | 73 | 1016.1 |
| 20260906012439 | 78 | 290 | 2.6 | 6.1 | 0.00 | 0.00 | 0.00 | 73 | 1016.1 |
| 20260906012344 | 78 | 270 | 2.6 | 6.1 | 0.00 | 0.00 | 0.00 | 73 | 1016.1 |
| 20260906012313 | 78 | 212 | 2.6 | 6.1 | 0.00 | 0.00 | 0.00 | 74 | 1016.1 |
| 20260906012300 | 78 | 212 | 2.6 | 6.1 | 0.00 | 0.00 | 0.00 | 73 | 1016.1 |
| 20260906012037 | 78 | 212 | 2.6 | 6.1 | 0.00 | 0.00 | 0.00 | 73 | 1016.1 |
| 20260906011936 | 78 | 212 | 2.6 | 6.1 | 0.00 | 0.00 | 0.00 | 73 | 1016.1 |
| 20260906011834 | 78 | 210 | 2.6 | 6.1 | 0.00 | 0.00 | 0.00 | 73 | 1016.1 |
| 20260906011733 | 78 | 202 | 2.6 | 6.1 | 0.00 | 0.00 | 0.00 | 73 | 1016.2 |
| 20260906011632 | 79 | 206 | 3.5 | 7.0 | 0.00 | 0.00 | 0.00 | 73 | 1016.3 |
| 20260906011538 | 79 | 215 | 3.5 | 9.6 | 0.00 | 0.00 | 0.00 | 72 | 1016.5 |
| 20260906011432 | 79 | 212 | 3.5 | 12.2 | 0.00 | 0.00 | 0.00 | 72 | 1016.7 |
| 20260906011333 | 79 | 251 | 4.3 | 18.2 | 0.00 | 0.00 | 0.00 | 72 | 1016.8 |
| 20260906011259 | 79 | 214 | 4.3 | 18.2 | 0.00 | 0.00 | 0.00 | 72 | 1016.4 |
| 20260906011249 | 79 | 287 | 4.3 | 18.2 | 0.00 | 0.00 | 0.00 | 72 | 1016.7 |
| 20260906011101 | 80 | 181 | 4.3 | 18.2 | 0.00 | 0.00 | 0.00 | 71 | 1016.3 |
| 20260906011049 | 80 | 211 | 4.3 | 18.2 | 0.00 | 0.00 | 0.00 | 71 | 1016.4 |
| 20260906010824 | 80 | 215 | 4.3 | 18.2 | 0.00 | 0.00 | 0.00 | 70 | 1016.3 |
| 20260906010725 | 80 | 265 | 3.5 | 18.2 | 0.00 | 0.00 | 0.00 | 70 | 1016.7 |
| 20260906010618 | 81 | 221 | 2.6 | 18.2 | 0.00 | 0.00 | 0.00 | 69 | 1016.8 |
| 20260906010556 | 81 | 38 | 1.7 | 7.8 | 0.00 | 0.00 | 0.00 | 67 | 1016.7 |
| 20260906010543 | 81 | 245 | 1.7 | 18.2 | 0.00 | 0.00 | 0.00 | 68 | 1016.9 |
| 20260906010320 | 81 | 288 | 0.9 | 6.1 | 0.00 | 0.00 | 0.00 | 65 | 1016.5 |
| 20260906010224 | 81 | 307 | 0.9 | 3.5 | 0.00 | 0.00 | 0.00 | 65 | 1016.2 |
| 20260906010119 | 81 | 205 | 1.7 | 3.5 | 0.00 | 0.00 | 0.00 | 65 | 1016.0 |
| 20260906010019 | 82 | 130 | 1.7 | 5.2 | 0.00 | 0.00 | 0.00 | 65 | 1016.1 |
| 20260906005920 | 82 | 200 | 1.7 | 5.2 | 0.00 | 0.00 | 0.00 | 65 | 1016.1 |
| 20260906005819 | 82 | 200 | 1.7 | 5.2 | 0.00 | 0.00 | 0.00 | 65 | 1016.1 |
| 20260906005716 | 82 | 200 | 1.7 | 5.2 | 0.00 | 0.00 | 0.00 | 65 | 1016.1 |
| 20260906005614 | 82 | 200 | 1.7 | 5.2 | 0.00 | 0.00 | 0.00 | 65 | 1016.2 |
| 20260906005416 | 82 | 200 | 1.7 | 5.2 | 0.00 | 0.00 | 0.00 | 65 | 1016.3 |
| 20260906005314 | 82 | 186 | 1.7 | 5.2 | 0.00 | 0.00 | 0.00 | 65 | 1016.2 |
| 20260906005212 | 82 | 183 | 0.9 | 5.2 | 0.00 | 0.00 | 0.00 | 65 | 1016.2 |
| 20260906005113 | 82 | 200 | 0.9 | 5.2 | 0.00 | 0.00 | 0.00 | 64 | 1016.2 |
| 20260906005012 | 82 | 190 | 1.7 | 3.5 | 0.00 | 0.00 | 0.00 | 64 | 1016.2 |
| 20260906004911 | 82 | 190 | 1.7 | 3.5 | 0.00 | 0.00 | 0.00 | 64 | 1016.2 |
| 20260906004814 | 82 | 190 | 1.7 | 3.5 | 0.00 | 0.00 | 0.00 | 64 | 1016.3 |
| 20260906004733 | 83 | 78 | 1.7 | 3.5 | 0.00 | 0.00 | 0.00 | 64 | 1016.3 |
| 20260906004727 | 82 | 78 | 2.6 | 3.5 | 0.00 | 0.00 | 0.00 | 64 | 1016.3 |
| 20260906004713 | 83 | 188 | 1.7 | 3.5 | 0.00 | 0.00 | 0.00 | 64 | 1016.3 |
| 20260906004651 | 82 | 78 | 1.7 | 3.5 | 0.00 | 0.00 | 0.00 | 64 | 1016.3 |
| 20260906004304 | 82 | 78 | 2.6 | 3.5 | 0.00 | 0.00 | 0.00 | 64 | 1016.3 |
| 20260906004204 | 82 | 78 | 2.6 | 3.5 | 0.00 | 0.00 | 0.00 | 64 | 1016.3 |
| 20260906004104 | 82 | 78 | 2.6 | 3.5 | 0.00 | 0.00 | 0.00 | 65 | 1016.3 |
| 20260906004005 | 82 | 77 | 2.6 | 3.5 | 0.00 | 0.00 | 0.00 | 65 | 1016.2 |
| 20260906003905 | 82 | 91 | 1.7 | 3.5 | 0.00 | 0.00 | 0.00 | 65 | 1016.3 |
| 20260906003802 | 82 | 88 | 1.7 | 3.5 | 0.00 | 0.00 | 0.00 | 65 | 1016.3 |
| 20260906003701 | 82 | 72 | 1.7 | 3.5 | 0.00 | 0.00 | 0.00 | 65 | 1016.3 |
| 20260906003600 | 82 | 91 | 1.7 | 3.5 | 0.00 | 0.00 | 0.00 | 65 | 1016.3 |
| 20260906003458 | 82 | 101 | 1.7 | 3.5 | 0.00 | 0.00 | 0.00 | 65 | 1016.3 |
| 20260906003400 | 82 | 101 | 1.7 | 3.5 | 0.00 | 0.00 | 0.00 | 65 | 1016.3 |
| 20260906003304 | 82 | 102 | 1.7 | 3.5 | 0.00 | 0.00 | 0.00 | 65 | 1016.3 |
| 20260906003201 | 82 | 102 | 1.7 | 3.5 | 0.00 | 0.00 | 0.00 | 65 | 1016.3 |
| 20260906003056 | 82 | 169 | 1.7 | 3.5 | 0.00 | 0.00 | 0.00 | 65 | 1016.4 |
| 20260906002953 | 82 | 169 | 0.9 | 3.5 | 0.00 | 0.00 | 0.00 | 65 | 1016.4 |
| 20260906002854 | 82 | 169 | 0.9 | 3.5 | 0.00 | 0.00 | 0.00 | 65 | 1016.4 |
| 20260906002739 | 82 | 169 | 0.9 | 3.5 | 0.00 | 0.00 | 0.00 | 65 | 1016.4 |
| 20260906002716 | 82 | 169 | 0.9 | 2.6 | 0.00 | 0.00 | 0.00 | 65 | 1016.3 |
| 20260906002703 | 82 | 169 | 0.9 | 2.6 | 0.00 | 0.00 | 0.00 | 65 | 1016.3 |
| 20260906002439 | 82 | 169 | 0.9 | 2.6 | 0.00 | 0.00 | 0.00 | 65 | 1016.3 |
| 20260906002412 | 82 | 169 | 0.9 | 2.6 | 0.00 | 0.00 | 0.00 | 65 | 1016.4 |
| 20260906002357 | 82 | 169 | 0.9 | 2.6 | 0.00 | 0.00 | 0.00 | 65 | 1016.3 |
| 20260906002142 | 82 | 169 | 0.9 | 2.6 | 0.00 | 0.00 | 0.00 | 65 | 1016.5 |
| 20260906002036 | 82 | 187 | 0.9 | 2.6 | 0.00 | 0.00 | 0.00 | 65 | 1016.4 |
| 20260906001933 | 82 | 187 | 0.9 | 2.6 | 0.00 | 0.00 | 0.00 | 65 | 1016.5 |
| 20260906001833 | 82 | 187 | 0.9 | 2.6 | 0.00 | 0.00 | 0.00 | 65 | 1016.5 |
| 20260906001731 | 82 | 187 | 0.9 | 3.5 | 0.00 | 0.00 | 0.00 | 65 | 1016.4 |
| 20260906001658 | 82 | 132 | 0.9 | 3.5 | 0.00 | 0.00 | 0.00 | 65 | 1016.5 |
| 20260906001648 | 82 | 152 | 0.9 | 3.5 | 0.00 | 0.00 | 0.00 | 65 | 1016.5 |
| 20260906001433 | 82 | 132 | 0.9 | 3.5 | 0.00 | 0.00 | 0.00 | 65 | 1016.4 |
| 20260906001316 | 82 | 132 | 0.9 | 3.5 | 0.00 | 0.00 | 0.00 | 65 | 1016.5 |
| 20260906001216 | 82 | 132 | 0.9 | 3.5 | 0.00 | 0.00 | 0.00 | 65 | 1016.5 |
| 20260906001118 | 82 | 111 | 0.9 | 3.5 | 0.00 | 0.00 | 0.00 | 66 | 1016.5 |
| 20260906001016 | 82 | 111 | 0.9 | 3.5 | 0.00 | 0.00 | 0.00 | 66 | 1016.5 |
| 20260906000917 | 82 | 111 | 0.9 | 3.5 | 0.00 | 0.00 | 0.00 | 65 | 1016.5 |
| 20260906000813 | 82 | 108 | 0.9 | 3.5 | 0.00 | 0.00 | 0.00 | 65 | 1016.5 |
| 20260906000712 | 82 | 141 | 0.9 | 2.6 | 0.00 | 0.00 | 0.00 | 65 | 1016.4 |
| 20260906000612 | 82 | 283 | 0.9 | 2.6 | 0.00 | 0.00 | 0.00 | 65 | 1016.3 |
| 20260906000513 | 82 | 94 | 0.9 | 2.6 | 0.00 | 0.00 | 0.00 | 65 | 1016.3 |
| 20260906000411 | 82 | 130 | 0.9 | 2.6 | 0.00 | 0.00 | 0.00 | 65 | 1016.3 |
| 20260906000305 | 82 | 130 | 0.9 | 2.6 | 0.00 | 0.00 | 0.00 | 65 | 1016.3 |
| 20260906000242 | 82 | 130 | 0.9 | 2.6 | 0.00 | 0.00 | 0.00 | 65 | 1016.3 |
| 20260906000230 | 82 | 129 | 0.9 | 2.6 | 0.00 | 0.00 | 0.00 | 65 | 1016.3 |
| 20260906000004 | 82 | 130 | 0.9 | 2.6 | 0.00 | 0.00 | 0.00 | 65 | 1016.3 |
| 20260905235904 | 82 | 136 | 0.9 | 2.6 | 0.00 | 0.00 | 0.00 | 65 | 1016.4 |
| 20260905235755 | 82 | 131 | 0.9 | 2.6 | 0.00 | 0.00 | 0.00 | 65 | 1016.4 |
| 20260905235654 | 82 | 200 | 0.9 | 2.6 | 0.00 | 0.00 | 0.00 | 65 | 1016.4 |
| 20260905235555 | 82 | 200 | 0.9 | 2.6 | 0.00 | 0.00 | 0.00 | 65 | 1016.4 |
| 20260905235456 | 82 | 200 | 0.9 | 2.6 | 0.00 | 0.00 | 0.00 | 65 | 1016.4 |
| 20260905235351 | 82 | 200 | 0.9 | 2.6 | 0.00 | 0.00 | 0.00 | 65 | 1016.5 |
| 20260905235246 | 82 | 200 | 0.9 | 3.5 | 0.00 | 0.00 | 0.00 | 65 | 1016.5 |
| 20260905235145 | 82 | 200 | 0.9 | 3.5 | 0.00 | 0.00 | 0.00 | 65 | 1016.5 |
| 20260905235049 | 82 | 200 | 0.9 | 3.5 | 0.00 | 0.00 | 0.00 | 66 | 1016.5 |
| 20260905234946 | 82 | 201 | 0.9 | 3.5 | 0.00 | 0.00 | 0.00 | 66 | 1016.5 |
| 20260905234845 | 82 | 198 | 0.9 | 3.5 | 0.00 | 0.00 | 0.00 | 65 | 1016.5 |
| 20260905234744 | 82 | 198 | 0.9 | 3.5 | 0.00 | 0.00 | 0.00 | 65 | 1016.4 |
| 20260905234642 | 82 | 198 | 0.9 | 3.5 | 0.00 | 0.00 | 0.00 | 65 | 1016.4 |
| 20260905234626 | 82 | 132 | 0.9 | 3.5 | 0.00 | 0.00 | 0.00 | 65 | 1016.3 |
| 20260905234612 | 82 | 208 | 0.9 | 3.5 | 0.00 | 0.00 | 0.00 | 65 | 1016.3 |
| 20260905234339 | 82 | 74 | 0.9 | 5.2 | 0.00 | 0.00 | 0.00 | 65 | 1016.3 |
| 20260905234233 | 82 | 71 | 0.9 | 5.2 | 0.00 | 0.00 | 0.00 | 65 | 1016.3 |
| 20260905234132 | 82 | 75 | 0.9 | 5.2 | 0.00 | 0.00 | 0.00 | 65 | 1016.3 |
| 20260905234032 | 82 | 75 | 0.9 | 5.2 | 0.00 | 0.00 | 0.00 | 65 | 1016.2 |
| 20260905233931 | 82 | 74 | 1.7 | 5.2 | 0.00 | 0.00 | 0.00 | 64 | 1016.2 |
| 20260905233855 | 82 | 119 | 1.7 | 5.2 | 0.00 | 0.00 | 0.00 | 64 | 1016.2 |
| 20260905233846 | 82 | 119 | 0.9 | 5.2 | 0.00 | 0.00 | 0.00 | 64 | 1016.2 |
| 20260905233625 | 82 | 119 | 1.7 | 5.2 | 0.00 | 0.00 | 0.00 | 64 | 1016.1 |
| 20260905233525 | 82 | 119 | 1.7 | 5.2 | 0.00 | 0.00 | 0.00 | 64 | 1016.2 |
| 20260905233426 | 82 | 89 | 1.7 | 5.2 | 0.00 | 0.00 | 0.00 | 64 | 1016.2 |
| 20260905233323 | 82 | 39 | 0.9 | 4.3 | 0.00 | 0.00 | 0.00 | 64 | 1016.2 |
| 20260905233221 | 82 | 103 | 0.9 | 4.3 | 0.00 | 0.00 | 0.00 | 64 | 1016.2 |
| 20260905233146 | 82 | 73 | 0.9 | 4.3 | 0.00 | 0.00 | 0.00 | 65 | 1016.2 |
| 20260905233137 | 82 | 132 | 0.9 | 4.3 | 0.00 | 0.00 | 0.00 | 65 | 1016.2 |
| 20260905232919 | 82 | 73 | 1.7 | 4.3 | 0.00 | 0.00 | 0.00 | 66 | 1016.3 |
| 20260905232817 | 82 | 73 | 1.7 | 4.3 | 0.00 | 0.00 | 0.00 | 66 | 1016.3 |
| 20260905232706 | 82 | 170 | 1.7 | 5.2 | 0.00 | 0.00 | 0.00 | 66 | 1016.3 |
| 20260905232602 | 82 | 208 | 1.7 | 5.2 | 0.00 | 0.00 | 0.00 | 66 | 1016.2 |
| 20260905232538 | 82 | 119 | 1.7 | 6.1 | 0.00 | 0.00 | 0.00 | 66 | 1016.1 |
| 20260905232531 | 82 | 120 | 2.6 | 6.1 | 0.00 | 0.00 | 0.00 | 66 | 1016.1 |
| 20260905232515 | 82 | 145 | 1.7 | 6.1 | 0.00 | 0.00 | 0.00 | 66 | 1016.2 |
| 20260905232446 | 82 | 119 | 1.7 | 6.1 | 0.00 | 0.00 | 0.00 | 66 | 1016.2 |
| 20260905232115 | 82 | 97 | 2.6 | 6.1 | 0.00 | 0.00 | 0.00 | 66 | 1016.1 |
| 20260905231957 | 82 | 66 | 2.6 | 6.1 | 0.00 | 0.00 | 0.00 | 66 | 1016.1 |
| 20260905231856 | 82 | 69 | 1.7 | 6.1 | 0.00 | 0.00 | 0.00 | 66 | 1016.1 |
| 20260905231757 | 82 | 77 | 1.7 | 6.1 | 0.00 | 0.00 | 0.00 | 66 | 1016.2 |
| 20260905231656 | 81 | 76 | 1.7 | 6.1 | 0.00 | 0.00 | 0.00 | 66 | 1016.1 |
| 20260905231555 | 81 | 76 | 1.7 | 6.1 | 0.00 | 0.00 | 0.00 | 67 | 1016.2 |
| 20260905231452 | 81 | 57 | 1.7 | 5.2 | 0.00 | 0.00 | 0.00 | 66 | 1016.2 |
| 20260905231353 | 81 | 107 | 1.7 | 5.2 | 0.00 | 0.00 | 0.00 | 67 | 1016.2 |
| 20260905231250 | 81 | 92 | 1.7 | 3.5 | 0.00 | 0.00 | 0.00 | 67 | 1016.2 |
| 20260905231145 | 81 | 91 | 1.7 | 3.5 | 0.00 | 0.00 | 0.00 | 67 | 1016.2 |
| 20260905231045 | 81 | 92 | 1.7 | 3.5 | 0.00 | 0.00 | 0.00 | 68 | 1016.2 |
| 20260905230944 | 81 | 89 | 1.7 | 3.5 | 0.00 | 0.00 | 0.00 | 68 | 1016.2 |
| 20260905230844 | 81 | 87 | 1.7 | 3.5 | 0.00 | 0.00 | 0.00 | 68 | 1016.1 |
| 20260905230741 | 81 | 87 | 1.7 | 3.5 | 0.00 | 0.00 | 0.00 | 68 | 1016.1 |
| 20260905230639 | 81 | 84 | 1.7 | 3.5 | 0.00 | 0.00 | 0.00 | 68 | 1016.1 |
| 20260905230540 | 81 | 84 | 1.7 | 6.1 | 0.00 | 0.00 | 0.00 | 68 | 1016.1 |
| 20260905230445 | 81 | 84 | 1.7 | 6.1 | 0.00 | 0.00 | 0.00 | 69 | 1016.2 |
| 20260905230337 | 81 | 83 | 1.7 | 6.1 | 0.00 | 0.00 | 0.00 | 68 | 1016.2 |
| 20260905230235 | 81 | 129 | 0.9 | 6.1 | 0.00 | 0.00 | 0.00 | 68 | 1016.2 |
| 20260905230206 | 81 | 130 | 0.9 | 6.1 | 0.00 | 0.00 | 0.00 | 68 | 1016.2 |
| 20260905230157 | 81 | 129 | 0.9 | 6.1 | 0.00 | 0.00 | 0.00 | 68 | 1016.3 |
| 20260905225931 | 81 | 130 | 0.9 | 6.1 | 0.00 | 0.00 | 0.00 | 68 | 1016.3 |
| 20260905225829 | 81 | 69 | 0.9 | 6.1 | 0.00 | 0.00 | 0.00 | 68 | 1016.3 |
| 20260905225729 | 81 | 186 | 0.9 | 6.1 | 0.00 | 0.00 | 0.00 | 68 | 1016.3 |
| 20260905225641 | 81 | 99 | 1.7 | 6.1 | 0.00 | 0.00 | 0.00 | 67 | 1016.0 |
| 20260905225628 | 81 | 88 | 0.9 | 6.1 | 0.00 | 0.00 | 0.00 | 69 | 1016.3 |
| 20260905225604 | 81 | 160 | 0.9 | 5.2 | 0.00 | 0.00 | 0.00 | 68 | 1016.3 |
| 20260905225450 | 81 | 99 | 1.7 | 6.1 | 0.00 | 0.00 | 0.00 | 68 | 1015.9 |
| 20260905225444 | 81 | 186 | 1.7 | 5.2 | 0.00 | 0.00 | 0.00 | 68 | 1016.2 |
| 20260905225426 | 81 | 160 | 1.7 | 5.2 | 0.00 | 0.00 | 0.00 | 68 | 1016.3 |
| 20260905225354 | 81 | 186 | 1.7 | 5.2 | 0.00 | 0.00 | 0.00 | 68 | 1016.2 |
| 20260905225315 | 81 | 113 | 1.7 | 5.2 | 0.00 | 0.00 | 0.00 | 68 | 1016.3 |
| 20260905225149 | 81 | 113 | 1.7 | 5.2 | 0.00 | 0.00 | 0.00 | 68 | 1016.3 |
| 20260905225028 | 81 | 113 | 2.6 | 5.2 | 0.00 | 0.00 | 0.00 | 68 | 1016.2 |
| 20260905225007 | 81 | 113 | 2.6 | 6.1 | 0.00 | 0.00 | 0.00 | 68 | 1016.2 |
| 20260905224839 | 81 | 90 | 2.6 | 6.1 | 0.00 | 0.00 | 0.00 | 68 | 1016.2 |
| 20260905224711 | 81 | 71 | 2.6 | 6.1 | 0.00 | 0.00 | 0.00 | 68 | 1016.1 |
| 20260905224646 | 81 | 71 | 2.6 | 6.1 | 0.00 | 0.00 | 0.00 | 68 | 1016.1 |
| 20260905224306 | 82 | 80 | 1.7 | 6.1 | 0.00 | 0.00 | 0.00 | 67 | 1016.0 |
| 20260905224202 | 82 | 79 | 1.7 | 6.1 | 0.00 | 0.00 | 0.00 | 67 | 1016.0 |
| 20260905224053 | 82 | 119 | 1.7 | 6.1 | 0.00 | 0.00 | 0.00 | 67 | 1016.0 |
| 20260905223951 | 82 | 68 | 1.7 | 6.1 | 0.00 | 0.00 | 0.00 | 67 | 1016.0 |
| 20260905223852 | 82 | 105 | 1.7 | 6.1 | 0.00 | 0.00 | 0.00 | 68 | 1016.0 |
| 20260905223752 | 82 | 117 | 0.9 | 6.1 | 0.00 | 0.00 | 0.00 | 68 | 1016.1 |
| 20260905223653 | 82 | 175 | 0.9 | 6.1 | 0.00 | 0.00 | 0.00 | 67 | 1016.1 |
| 20260905223552 | 82 | 62 | 0.9 | 6.1 | 0.00 | 0.00 | 0.00 | 67 | 1016.1 |
| 20260905223451 | 82 | 62 | 0.9 | 7.0 | 0.00 | 0.00 | 0.00 | 68 | 1016.1 |
| 20260905223351 | 82 | 62 | 0.9 | 7.0 | 0.00 | 0.00 | 0.00 | 68 | 1016.1 |
| 20260905223249 | 82 | 188 | 0.9 | 7.0 | 0.00 | 0.00 | 0.00 | 67 | 1016.2 |
| 20260905223219 | 82 | 167 | 0.9 | 7.0 | 0.00 | 0.00 | 0.00 | 68 | 1016.2 |
| 20260905223208 | 82 | 86 | 0.9 | 7.0 | 0.00 | 0.00 | 0.00 | 68 | 1016.2 |
| 20260905222944 | 82 | 113 | 0.9 | 7.0 | 0.00 | 0.00 | 0.00 | 68 | 1016.2 |
| 20260905222844 | 82 | 117 | 1.7 | 7.0 | 0.00 | 0.00 | 0.00 | 69 | 1016.2 |
| 20260905222742 | 82 | 180 | 1.7 | 7.0 | 0.00 | 0.00 | 0.00 | 68 | 1016.2 |
| 20260905222642 | 82 | 180 | 1.7 | 7.0 | 0.00 | 0.00 | 0.00 | 68 | 1016.3 |
| 20260905222529 | 82 | 180 | 1.7 | 7.0 | 0.00 | 0.00 | 0.00 | 68 | 1016.3 |
| 20260905222426 | 82 | 104 | 1.7 | 7.0 | 0.00 | 0.00 | 0.00 | 68 | 1016.4 |
| 20260905222328 | 82 | 163 | 1.7 | 7.0 | 0.00 | 0.00 | 0.00 | 68 | 1016.4 |
| 20260905222228 | 82 | 218 | 1.7 | 7.0 | 0.00 | 0.00 | 0.00 | 68 | 1016.4 |
| 20260905222127 | 82 | 217 | 1.7 | 7.0 | 0.00 | 0.00 | 0.00 | 68 | 1016.5 |
| 20260905222022 | 82 | 218 | 1.7 | 7.0 | 0.00 | 0.00 | 0.00 | 68 | 1016.5 |
| 20260905221924 | 82 | 138 | 1.7 | 7.0 | 0.00 | 0.00 | 0.00 | 68 | 1016.5 |
| 20260905221821 | 82 | 183 | 1.7 | 7.0 | 0.00 | 0.00 | 0.00 | 68 | 1016.5 |
| 20260905221805 | 82 | 145 | 1.7 | 7.0 | 0.00 | 0.00 | 0.00 | 68 | 1016.5 |
| 20260905221752 | 82 | 144 | 1.7 | 7.0 | 0.00 | 0.00 | 0.00 | 68 | 1016.5 |
| 20260905221518 | 82 | 167 | 1.7 | 7.0 | 0.00 | 0.00 | 0.00 | 67 | 1016.5 |
| 20260905221420 | 82 | 132 | 1.7 | 6.1 | 0.00 | 0.00 | 0.00 | 68 | 1016.7 |
| 20260905221317 | 82 | 234 | 1.7 | 5.2 | 0.00 | 0.00 | 0.00 | 67 | 1016.7 |
| 20260905221217 | 82 | 140 | 1.7 | 7.0 | 0.00 | 0.00 | 0.00 | 67 | 1016.7 |
| 20260905221116 | 82 | 140 | 1.7 | 7.0 | 0.00 | 0.00 | 0.00 | 67 | 1016.7 |
| 20260905221010 | 82 | 188 | 1.7 | 7.0 | 0.00 | 0.00 | 0.00 | 67 | 1016.7 |
| 20260905220913 | 82 | 145 | 1.7 | 7.0 | 0.00 | 0.00 | 0.00 | 66 | 1016.7 |
| 20260905220809 | 82 | 128 | 1.7 | 7.0 | 0.00 | 0.00 | 0.00 | 66 | 1016.8 |
| 20260905220706 | 82 | 86 | 2.6 | 7.0 | 0.00 | 0.00 | 0.00 | 66 | 1016.7 |
| 20260905220605 | 82 | 134 | 2.6 | 9.6 | 0.00 | 0.00 | 0.00 | 66 | 1016.8 |
| 20260905220501 | 83 | 173 | 2.6 | 9.6 | 0.00 | 0.00 | 0.00 | 65 | 1016.7 |
| 20260905220400 | 83 | 150 | 2.6 | 9.6 | 0.00 | 0.00 | 0.00 | 65 | 1016.8 |
| 20260905220258 | 83 | 111 | 2.6 | 9.6 | 0.00 | 0.00 | 0.00 | 65 | 1016.8 |
| 20260905220201 | 83 | 174 | 2.6 | 9.6 | 0.00 | 0.00 | 0.00 | 65 | 1016.8 |
| 20260905220059 | 83 | 82 | 2.6 | 9.6 | 0.00 | 0.00 | 0.00 | 65 | 1016.9 |
| 20260905215953 | 83 | 81 | 2.6 | 9.6 | 0.00 | 0.00 | 0.00 | 65 | 1016.9 |
| 20260905215853 | 83 | 26 | 2.6 | 9.6 | 0.00 | 0.00 | 0.00 | 66 | 1016.9 |
| 20260905215753 | 83 | 175 | 2.6 | 9.6 | 0.00 | 0.00 | 0.00 | 65 | 1017.0 |
| 20260905215652 | 83 | 154 | 2.6 | 9.6 | 0.00 | 0.00 | 0.00 | 66 | 1017.0 |
| 20260905215555 | 83 | 121 | 1.7 | 7.8 | 0.00 | 0.00 | 0.00 | 66 | 1017.0 |
| 20260905215439 | 83 | 161 | 1.7 | 7.8 | 0.00 | 0.00 | 0.00 | 67 | 1017.1 |
| 20260905215340 | 83 | 142 | 2.6 | 9.6 | 0.00 | 0.00 | 0.00 | 65 | 1017.0 |
| 20260905215240 | 83 | 123 | 2.6 | 9.6 | 0.00 | 0.00 | 0.00 | 65 | 1017.1 |
| 20260905215151 | 83 | 219 | 2.6 | 9.6 | 0.00 | 0.00 | 0.00 | 65 | 1017.1 |
| 20260905215040 | 83 | 190 | 3.5 | 9.6 | 0.00 | 0.00 | 0.00 | 66 | 1017.1 |
| 20260905214936 | 83 | 190 | 3.5 | 9.6 | 0.00 | 0.00 | 0.00 | 66 | 1017.1 |
| 20260905214926 | 83 | 124 | 3.5 | 9.6 | 0.00 | 0.00 | 0.00 | 65 | 1017.1 |
| 20260905214908 | 83 | 93 | 3.5 | 9.6 | 0.00 | 0.00 | 0.00 | 65 | 1017.1 |
| 20260905214711 | 84 | 105 | 3.5 | 9.6 | 0.00 | 0.00 | 0.00 | 65 | 1017.1 |
| 20260905214659 | 84 | 90 | 3.5 | 9.6 | 0.00 | 0.00 | 0.00 | 65 | 1017.1 |
| 20260905214429 | 84 | 124 | 3.5 | 10.4 | 0.00 | 0.00 | 0.00 | 64 | 1017.1 |
| 20260905214329 | 84 | 134 | 3.5 | 10.4 | 0.00 | 0.00 | 0.00 | 64 | 1017.1 |
| 20260905214235 | 85 | 92 | 3.5 | 10.4 | 0.00 | 0.00 | 0.00 | 64 | 1017.0 |
| 20260905214128 | 85 | 109 | 3.5 | 11.3 | 0.00 | 0.00 | 0.00 | 64 | 1017.0 |
| 20260905214028 | 85 | 77 | 3.5 | 11.3 | 0.00 | 0.00 | 0.00 | 64 | 1016.9 |
| 20260905213918 | 85 | 187 | 3.5 | 11.3 | 0.00 | 0.00 | 0.00 | 63 | 1016.9 |
| 20260905213819 | 85 | 80 | 2.6 | 11.3 | 0.00 | 0.00 | 0.00 | 64 | 1016.8 |
| 20260905213719 | 85 | 108 | 3.5 | 11.3 | 0.00 | 0.00 | 0.00 | 64 | 1016.8 |
| 20260905213620 | 86 | 180 | 3.5 | 11.3 | 0.00 | 0.00 | 0.00 | 63 | 1016.8 |
| 20260905213540 | 87 | 182 | 3.5 | 10.4 | 0.00 | 0.00 | 0.00 | 63 | 1016.9 |
| 20260905213535 | 86 | 169 | 2.6 | 11.3 | 0.00 | 0.00 | 0.00 | 62 | 1016.9 |
| 20260905213521 | 86 | 138 | 3.5 | 11.3 | 0.00 | 0.00 | 0.00 | 63 | 1016.8 |
| 20260905213501 | 86 | 68 | 3.5 | 11.3 | 0.00 | 0.00 | 0.00 | 63 | 1016.8 |
| 20260905213437 | 86 | 109 | 3.5 | 11.3 | 0.00 | 0.00 | 0.00 | 63 | 1016.8 |
| 20260905213142 | 87 | 168 | 2.6 | 8.7 | 0.00 | 0.00 | 0.00 | 63 | 1016.8 |
| 20260905212950 | 87 | 200 | 3.5 | 10.4 | 0.00 | 0.00 | 0.00 | 62 | 1016.9 |
| 20260905212936 | 87 | 128 | 3.5 | 10.4 | 0.00 | 0.00 | 0.00 | 62 | 1016.9 |
| 20260905212705 | 87 | 202 | 3.5 | 10.4 | 0.00 | 0.00 | 0.00 | 62 | 1017.0 |
| 20260905212647 | 87 | 55 | 3.5 | 10.4 | 0.00 | 0.00 | 0.00 | 62 | 1016.9 |
| 20260905212635 | 87 | 126 | 3.5 | 10.4 | 0.00 | 0.00 | 0.00 | 62 | 1017.0 |
| 20260905212353 | 87 | 110 | 3.5 | 13.0 | 0.00 | 0.00 | 0.00 | 61 | 1016.9 |
| 20260905212252 | 87 | 137 | 4.3 | 13.0 | 0.00 | 0.00 | 0.00 | 61 | 1016.9 |
| 20260905212151 | 88 | 17 | 4.3 | 13.0 | 0.00 | 0.00 | 0.00 | 61 | 1016.9 |
| 20260905212051 | 88 | 128 | 4.3 | 13.0 | 0.00 | 0.00 | 0.00 | 61 | 1016.9 |
| 20260905211954 | 88 | 148 | 4.3 | 13.0 | 0.00 | 0.00 | 0.00 | 60 | 1016.8 |
| 20260905211853 | 88 | 136 | 4.3 | 13.0 | 0.00 | 0.00 | 0.00 | 60 | 1016.9 |
| 20260905211800 | 88 | 39 | 4.3 | 13.0 | 0.00 | 0.00 | 0.00 | 59 | 1016.9 |
| 20260905211749 | 88 | 38 | 4.3 | 13.0 | 0.00 | 0.00 | 0.00 | 59 | 1016.8 |
| 20260905211732 | 88 | 67 | 4.3 | 13.0 | 0.00 | 0.00 | 0.00 | 59 | 1016.8 |
| 20260905211451 | 88 | 80 | 4.3 | 13.0 | 0.00 | 0.00 | 0.00 | 60 | 1016.9 |
| 20260905211423 | 88 | 69 | 4.3 | 13.0 | 0.00 | 0.00 | 0.00 | 60 | 1016.9 |
| 20260905211404 | 88 | 27 | 4.3 | 13.0 | 0.00 | 0.00 | 0.00 | 60 | 1017.0 |
| 20260905211142 | 88 | 76 | 4.3 | 13.0 | 0.00 | 0.00 | 0.00 | 59 | 1016.9 |
| 20260905211038 | 88 | 58 | 4.3 | 13.0 | 0.00 | 0.00 | 0.00 | 60 | 1016.9 |
| 20260905210939 | 88 | 34 | 5.2 | 13.0 | 0.00 | 0.00 | 0.00 | 60 | 1017.0 |
| 20260905210828 | 88 | 41 | 5.2 | 12.2 | 0.00 | 0.00 | 0.00 | 60 | 1016.9 |
| 20260905210735 | 88 | 82 | 5.2 | 12.2 | 0.00 | 0.00 | 0.00 | 61 | 1016.9 |
| 20260905210628 | 88 | 30 | 5.2 | 12.2 | 0.00 | 0.00 | 0.00 | 60 | 1016.9 |
| 20260905210529 | 88 | 86 | 5.2 | 12.2 | 0.00 | 0.00 | 0.00 | 60 | 1016.9 |
| 20260905210429 | 88 | 0 | 4.3 | 12.2 | 0.00 | 0.00 | 0.00 | 61 | 1017.0 |
| 20260905210324 | 88 | 101 | 4.3 | 12.2 | 0.00 | 0.00 | 0.00 | 61 | 1017.0 |
| 20260905210303 | 87 | 57 | 4.3 | 12.2 | 0.00 | 0.00 | 0.00 | 61 | 1017.0 |
| 20260905210251 | 88 | 83 | 4.3 | 12.2 | 0.00 | 0.00 | 0.00 | 61 | 1017.0 |
| 20260905210022 | 88 | 65 | 4.3 | 10.4 | 0.00 | 0.00 | 0.00 | 61 | 1016.9 |
| 20260905205922 | 87 | 17 | 4.3 | 10.4 | 0.00 | 0.00 | 0.00 | 62 | 1017.0 |
| 20260905205852 | 87 | 50 | 4.3 | 10.4 | 0.00 | 0.00 | 0.00 | 62 | 1016.9 |
| 20260905205841 | 87 | 40 | 4.3 | 10.4 | 0.00 | 0.00 | 0.00 | 62 | 1016.9 |
| 20260905205617 | 87 | 54 | 3.5 | 10.4 | 0.00 | 0.00 | 0.00 | 61 | 1016.8 |
| 20260905205515 | 87 | 73 | 3.5 | 10.4 | 0.00 | 0.00 | 0.00 | 62 | 1016.9 |
| 20260905205416 | 87 | 69 | 3.5 | 10.4 | 0.00 | 0.00 | 0.00 | 62 | 1016.9 |
| 20260905205313 | 87 | 36 | 3.5 | 10.4 | 0.00 | 0.00 | 0.00 | 61 | 1016.8 |
| 20260905205212 | 87 | 74 | 3.5 | 10.4 | 0.00 | 0.00 | 0.00 | 61 | 1016.9 |
| 20260905205109 | 87 | 90 | 3.5 | 10.4 | 0.00 | 0.00 | 0.00 | 61 | 1016.9 |
| 20260905205013 | 87 | 27 | 3.5 | 10.4 | 0.00 | 0.00 | 0.00 | 61 | 1016.8 |
| 20260905204909 | 88 | 49 | 3.5 | 9.6 | 0.00 | 0.00 | 0.00 | 61 | 1016.8 |
| 20260905204808 | 88 | 70 | 2.6 | 9.6 | 0.00 | 0.00 | 0.00 | 61 | 1016.8 |
| 20260905204708 | 88 | 90 | 3.5 | 9.6 | 0.00 | 0.00 | 0.00 | 61 | 1016.8 |
| 20260905204606 | 88 | 96 | 3.5 | 9.6 | 0.00 | 0.00 | 0.00 | 61 | 1016.8 |
| 20260905204505 | 87 | 32 | 3.5 | 9.6 | 0.00 | 0.00 | 0.00 | 62 | 1016.8 |
| 20260905204405 | 87 | 138 | 3.5 | 9.6 | 0.00 | 0.00 | 0.00 | 61 | 1016.7 |
| 20260905204305 | 87 | 30 | 3.5 | 9.6 | 0.00 | 0.00 | 0.00 | 62 | 1016.8 |
| 20260905204205 | 87 | 147 | 3.5 | 9.6 | 0.00 | 0.00 | 0.00 | 61 | 1016.8 |
| 20260905204107 | 87 | 28 | 3.5 | 9.6 | 0.00 | 0.00 | 0.00 | 62 | 1016.8 |
| 20260905204042 | 87 | 55 | 4.3 | 11.3 | 0.00 | 0.00 | 0.00 | 61 | 1016.8 |
| 20260905204031 | 87 | 24 | 4.3 | 9.6 | 0.00 | 0.00 | 0.00 | 61 | 1016.8 |
| 20260905203804 | 87 | 355 | 5.2 | 11.3 | 0.00 | 0.00 | 0.00 | 61 | 1016.9 |
| 20260905203705 | 87 | 81 | 5.2 | 11.3 | 0.00 | 0.00 | 0.00 | 62 | 1016.9 |
| 20260905203557 | 87 | 59 | 4.3 | 11.3 | 0.00 | 0.00 | 0.00 | 61 | 1016.9 |
| 20260905203514 | 88 | 38 | 5.2 | 11.3 | 0.00 | 0.00 | 0.00 | 59 | 1016.8 |
| 20260905203503 | 87 | 0 | 5.2 | 11.3 | 0.00 | 0.00 | 0.00 | 61 | 1016.9 |
| 20260905203442 | 87 | 44 | 5.2 | 11.3 | 0.00 | 0.00 | 0.00 | 61 | 1016.9 |
| 20260905203321 | 88 | 27 | 5.2 | 11.3 | 0.00 | 0.00 | 0.00 | 60 | 1016.9 |
| 20260905203132 | 88 | 33 | 4.3 | 11.3 | 0.00 | 0.00 | 0.00 | 60 | 1016.9 |
| 20260905203118 | 88 | 69 | 5.2 | 11.3 | 0.00 | 0.00 | 0.00 | 59 | 1017.0 |
| 20260905202858 | 88 | 42 | 4.3 | 11.3 | 0.00 | 0.00 | 0.00 | 59 | 1017.0 |
| 20260905202758 | 88 | 49 | 4.3 | 11.3 | 0.00 | 0.00 | 0.00 | 59 | 1016.9 |
| 20260905202655 | 88 | 94 | 4.3 | 11.3 | 0.00 | 0.00 | 0.00 | 60 | 1017.0 |
| 20260905202558 | 88 | 91 | 4.3 | 11.3 | 0.00 | 0.00 | 0.00 | 60 | 1017.0 |
| 20260905202454 | 88 | 88 | 3.5 | 11.3 | 0.00 | 0.00 | 0.00 | 60 | 1017.0 |
| 20260905202355 | 88 | 114 | 3.5 | 9.6 | 0.00 | 0.00 | 0.00 | 61 | 1017.0 |
| 20260905202254 | 88 | 86 | 3.5 | 8.7 | 0.00 | 0.00 | 0.00 | 60 | 1017.0 |
| 20260905202153 | 88 | 106 | 4.3 | 8.7 | 0.00 | 0.00 | 0.00 | 60 | 1017.0 |
| 20260905202053 | 88 | 80 | 4.3 | 8.7 | 0.00 | 0.00 | 0.00 | 59 | 1017.0 |
| 20260905202026 | 89 | 67 | 4.3 | 8.7 | 0.00 | 0.00 | 0.00 | 59 | 1017.0 |
| 20260905202014 | 88 | 86 | 4.3 | 8.7 | 0.00 | 0.00 | 0.00 | 59 | 1017.0 |
| 20260905201827 | 89 | 61 | 4.3 | 8.7 | 0.00 | 0.00 | 0.00 | 59 | 1017.0 |
| 20260905201810 | 89 | 36 | 4.3 | 8.7 | 0.00 | 0.00 | 0.00 | 59 | 1017.1 |
| 20260905201545 | 89 | 31 | 4.3 | 8.7 | 0.00 | 0.00 | 0.00 | 58 | 1017.0 |
| 20260905201445 | 89 | 60 | 4.3 | 8.7 | 0.00 | 0.00 | 0.00 | 57 | 1017.0 |
| 20260905201418 | 90 | 22 | 4.3 | 10.4 | 0.00 | 0.00 | 0.00 | 57 | 1017.0 |
| 20260905201406 | 90 | 38 | 4.3 | 10.4 | 0.00 | 0.00 | 0.00 | 57 | 1017.1 |
| 20260905201141 | 90 | 64 | 4.3 | 10.4 | 0.00 | 0.00 | 0.00 | 57 | 1017.1 |
| 20260905201057 | 91 | 59 | 3.5 | 10.4 | 0.00 | 0.00 | 0.00 | 56 | 1017.1 |
| 20260905201042 | 91 | 30 | 4.3 | 10.4 | 0.00 | 0.00 | 0.00 | 56 | 1017.1 |
| 20260905201035 | 92 | 62 | 3.5 | 10.4 | 0.00 | 0.00 | 0.00 | 54 | 1017.1 |
| 20260905201030 | 92 | 47 | 3.5 | 10.4 | 0.00 | 0.00 | 0.00 | 55 | 1017.1 |
| 20260905201014 | 91 | 32 | 4.3 | 10.4 | 0.00 | 0.00 | 0.00 | 56 | 1017.1 |
| 20260905200823 | 92 | 86 | 3.5 | 10.4 | 0.00 | 0.00 | 0.00 | 55 | 1017.1 |
| 20260905200510 | 92 | 62 | 2.6 | 8.7 | 0.00 | 0.00 | 0.00 | 54 | 1017.2 |
| 20260905200500 | 92 | 30 | 3.5 | 10.4 | 0.00 | 0.00 | 0.00 | 54 | 1017.1 |
| 20260905200308 | 92 | 0 | 2.6 | 8.7 | 0.00 | 0.00 | 0.00 | 53 | 1017.1 |
| 20260905200258 | 92 | 43 | 2.6 | 8.7 | 0.00 | 0.00 | 0.00 | 53 | 1017.1 |
| 20260905200038 | 92 | 342 | 2.6 | 8.7 | 0.00 | 0.00 | 0.00 | 52 | 1017.2 |
| 20260905195938 | 92 | 333 | 2.6 | 8.7 | 0.00 | 0.00 | 0.00 | 52 | 1017.1 |
| 20260905195837 | 92 | 255 | 2.6 | 8.7 | 0.00 | 0.00 | 0.00 | 52 | 1017.1 |
| 20260905195739 | 92 | 283 | 2.6 | 8.7 | 0.00 | 0.00 | 0.00 | 53 | 1017.2 |
| 20260905195638 | 92 | 23 | 2.6 | 8.7 | 0.00 | 0.00 | 0.00 | 52 | 1017.1 |
| 20260905195539 | 92 | 307 | 2.6 | 8.7 | 0.00 | 0.00 | 0.00 | 52 | 1017.1 |
| 20260905195433 | 92 | 282 | 2.6 | 7.8 | 0.00 | 0.00 | 0.00 | 53 | 1017.2 |
| 20260905195356 | 92 | 342 | 2.6 | 6.1 | 0.00 | 0.00 | 0.00 | 53 | 1017.2 |
| 20260905195350 | 92 | 342 | 2.6 | 6.1 | 0.00 | 0.00 | 0.00 | 53 | 1017.1 |
| 20260905195340 | 92 | 205 | 2.6 | 7.8 | 0.00 | 0.00 | 0.00 | 53 | 1017.2 |
| 20260905195314 | 92 | 271 | 2.6 | 7.8 | 0.00 | 0.00 | 0.00 | 52 | 1017.2 |
| 20260905194935 | 92 | 72 | 2.6 | 6.1 | 0.00 | 0.00 | 0.00 | 54 | 1017.2 |
| 20260905194835 | 92 | 61 | 2.6 | 5.2 | 0.00 | 0.00 | 0.00 | 53 | 1017.2 |
| 20260905194800 | 92 | 28 | 2.6 | 5.2 | 0.00 | 0.00 | 0.00 | 54 | 1017.3 |
| 20260905194750 | 92 | 61 | 2.6 | 5.2 | 0.00 | 0.00 | 0.00 | 55 | 1017.2 |
| 20260905194530 | 92 | 340 | 2.6 | 5.2 | 0.00 | 0.00 | 0.00 | 54 | 1017.2 |
| 20260905194430 | 92 | 52 | 1.7 | 5.2 | 0.00 | 0.00 | 0.00 | 54 | 1017.3 |
| 20260905194330 | 92 | 89 | 1.7 | 5.2 | 0.00 | 0.00 | 0.00 | 54 | 1017.3 |
| 20260905194230 | 92 | 114 | 1.7 | 5.2 | 0.00 | 0.00 | 0.00 | 53 | 1017.3 |
| 20260905194129 | 92 | 49 | 1.7 | 5.2 | 0.00 | 0.00 | 0.00 | 53 | 1017.3 |
| 20260905194030 | 92 | 46 | 2.6 | 5.2 | 0.00 | 0.00 | 0.00 | 55 | 1017.3 |
| 20260905194004 | 92 | 98 | 2.6 | 5.2 | 0.00 | 0.00 | 0.00 | 54 | 1017.3 |
| 20260905193954 | 92 | 94 | 2.6 | 5.2 | 0.00 | 0.00 | 0.00 | 54 | 1017.2 |
| 20260905193736 | 91 | 21 | 1.7 | 5.2 | 0.00 | 0.00 | 0.00 | 54 | 1017.3 |
| 20260905193630 | 91 | 22 | 1.7 | 5.2 | 0.00 | 0.00 | 0.00 | 55 | 1017.3 |
| 20260905193529 | 91 | 70 | 1.7 | 5.2 | 0.00 | 0.00 | 0.00 | 55 | 1017.3 |
| 20260905193436 | 91 | 75 | 1.7 | 5.2 | 0.00 | 0.00 | 0.00 | 54 | 1017.3 |
| 20260905193329 | 91 | 76 | 1.7 | 5.2 | 0.00 | 0.00 | 0.00 | 54 | 1017.3 |
| 20260905193229 | 91 | 67 | 1.7 | 5.2 | 0.00 | 0.00 | 0.00 | 54 | 1017.3 |
| 20260905193130 | 91 | 66 | 1.7 | 5.2 | 0.00 | 0.00 | 0.00 | 54 | 1017.3 |
| 20260905193030 | 91 | 59 | 1.7 | 6.1 | 0.00 | 0.00 | 0.00 | 54 | 1017.3 |
| 20260905192929 | 92 | 51 | 1.7 | 6.1 | 0.00 | 0.00 | 0.00 | 55 | 1017.3 |
| 20260905192830 | 92 | 11 | 2.6 | 7.0 | 0.00 | 0.00 | 0.00 | 54 | 1017.4 |
| 20260905192730 | 92 | 11 | 2.6 | 7.0 | 0.00 | 0.00 | 0.00 | 54 | 1017.4 |
| 20260905192635 | 92 | 5 | 2.6 | 7.0 | 0.00 | 0.00 | 0.00 | 54 | 1017.4 |
| 20260905192609 | 92 | 51 | 2.6 | 7.0 | 0.00 | 0.00 | 0.00 | 54 | 1017.5 |
| 20260905192555 | 92 | 64 | 2.6 | 7.0 | 0.00 | 0.00 | 0.00 | 55 | 1017.4 |
| 20260905192329 | 92 | 301 | 2.6 | 7.0 | 0.00 | 0.00 | 0.00 | 54 | 1017.5 |
| 20260905192230 | 92 | 317 | 3.5 | 7.0 | 0.00 | 0.00 | 0.00 | 54 | 1017.5 |
| 20260905192131 | 92 | 306 | 3.5 | 7.0 | 0.00 | 0.00 | 0.00 | 54 | 1017.5 |
| 20260905192031 | 92 | 323 | 3.5 | 7.0 | 0.00 | 0.00 | 0.00 | 54 | 1017.5 |
| 20260905191931 | 92 | 299 | 3.5 | 7.0 | 0.00 | 0.00 | 0.00 | 54 | 1017.6 |
| 20260905191829 | 92 | 340 | 3.5 | 7.0 | 0.00 | 0.00 | 0.00 | 54 | 1017.6 |
| 20260905191730 | 92 | 0 | 2.6 | 7.0 | 0.00 | 0.00 | 0.00 | 55 | 1017.7 |
| 20260905191705 | 92 | 185 | 2.6 | 7.0 | 0.00 | 0.00 | 0.00 | 55 | 1017.8 |
| 20260905191655 | 92 | 345 | 2.6 | 7.0 | 0.00 | 0.00 | 0.00 | 56 | 1017.7 |
| 20260905191429 | 92 | 288 | 3.5 | 7.8 | 0.00 | 0.00 | 0.00 | 55 | 1017.8 |
| 20260905191330 | 92 | 320 | 3.5 | 7.8 | 0.00 | 0.00 | 0.00 | 55 | 1017.9 |
| 20260905191229 | 91 | 226 | 3.5 | 7.8 | 0.00 | 0.00 | 0.00 | 56 | 1017.9 |
| 20260905191130 | 91 | 207 | 2.6 | 7.8 | 0.00 | 0.00 | 0.00 | 55 | 1017.8 |
| 20260905191030 | 91 | 346 | 2.6 | 7.8 | 0.00 | 0.00 | 0.00 | 54 | 1017.8 |
| 20260905190929 | 92 | 308 | 2.6 | 7.8 | 0.00 | 0.00 | 0.00 | 55 | 1017.7 |
| 20260905190830 | 92 | 240 | 2.6 | 7.8 | 0.00 | 0.00 | 0.00 | 56 | 1017.8 |
| 20260905190729 | 91 | 169 | 2.6 | 7.8 | 0.00 | 0.00 | 0.00 | 55 | 1017.8 |
| 20260905190629 | 91 | 299 | 2.6 | 7.8 | 0.00 | 0.00 | 0.00 | 56 | 1017.8 |
| 20260905190530 | 92 | 329 | 2.6 | 7.8 | 0.00 | 0.00 | 0.00 | 55 | 1017.7 |
| 20260905190430 | 91 | 319 | 2.6 | 7.0 | 0.00 | 0.00 | 0.00 | 55 | 1017.7 |
| 20260905190329 | 92 | 56 | 2.6 | 7.8 | 0.00 | 0.00 | 0.00 | 55 | 1017.7 |
| 20260905190231 | 92 | 275 | 2.6 | 7.8 | 0.00 | 0.00 | 0.00 | 56 | 1017.8 |
| 20260905190130 | 91 | 19 | 2.6 | 7.8 | 0.00 | 0.00 | 0.00 | 55 | 1017.8 |
| 20260905190023 | 91 | 9 | 1.7 | 7.8 | 0.00 | 0.00 | 0.00 | 55 | 1017.7 |
| 20260905185925 | 91 | 331 | 2.6 | 7.8 | 0.00 | 0.00 | 0.00 | 55 | 1017.7 |
| 20260905185826 | 91 | 29 | 1.7 | 7.8 | 0.00 | 0.00 | 0.00 | 55 | 1017.8 |
| 20260905185724 | 91 | 30 | 1.7 | 7.8 | 0.00 | 0.00 | 0.00 | 56 | 1017.9 |
| 20260905185626 | 91 | 80 | 1.7 | 7.8 | 0.00 | 0.00 | 0.00 | 56 | 1017.9 |
| 20260905185522 | 91 | 71 | 1.7 | 7.8 | 0.00 | 0.00 | 0.00 | 55 | 1017.9 |
| 20260905185420 | 91 | 57 | 1.7 | 7.8 | 0.00 | 0.00 | 0.00 | 55 | 1017.9 |
| 20260905185320 | 91 | 119 | 1.7 | 3.5 | 0.00 | 0.00 | 0.00 | 55 | 1017.9 |
| 20260905185222 | 91 | 119 | 1.7 | 4.3 | 0.00 | 0.00 | 0.00 | 56 | 1017.9 |
| 20260905185120 | 91 | 110 | 1.7 | 4.3 | 0.00 | 0.00 | 0.00 | 56 | 1017.8 |
| 20260905185015 | 91 | 86 | 1.7 | 7.0 | 0.00 | 0.00 | 0.00 | 55 | 1017.9 |
| 20260905184912 | 91 | 81 | 1.7 | 7.0 | 0.00 | 0.00 | 0.00 | 56 | 1018.0 |
| 20260905184811 | 91 | 78 | 1.7 | 7.0 | 0.00 | 0.00 | 0.00 | 56 | 1017.9 |
| 20260905184748 | 91 | 31 | 2.6 | 7.0 | 0.00 | 0.00 | 0.00 | 55 | 1017.9 |
| 20260905184736 | 91 | 78 | 2.6 | 7.0 | 0.00 | 0.00 | 0.00 | 56 | 1018.0 |
| 20260905184533 | 91 | 348 | 3.5 | 7.8 | 0.00 | 0.00 | 0.00 | 56 | 1017.9 |
| 20260905184519 | 91 | 32 | 2.6 | 7.0 | 0.00 | 0.00 | 0.00 | 56 | 1018.0 |
| 20260905184454 | 91 | 5 | 2.6 | 7.0 | 0.00 | 0.00 | 0.00 | 56 | 1017.9 |
| 20260905184330 | 91 | 355 | 2.6 | 7.0 | 0.00 | 0.00 | 0.00 | 55 | 1017.9 |
| 20260905184106 | 91 | 80 | 3.5 | 7.8 | 0.00 | 0.00 | 0.00 | 55 | 1018.0 |
| 20260905184006 | 91 | 98 | 3.5 | 7.8 | 0.00 | 0.00 | 0.00 | 55 | 1017.9 |
| 20260905183907 | 91 | 76 | 3.5 | 7.8 | 0.00 | 0.00 | 0.00 | 55 | 1017.9 |
| 20260905183805 | 91 | 59 | 3.5 | 7.8 | 0.00 | 0.00 | 0.00 | 55 | 1017.9 |
| 20260905183709 | 91 | 51 | 3.5 | 7.8 | 0.00 | 0.00 | 0.00 | 54 | 1018.0 |
| 20260905183605 | 91 | 5 | 3.5 | 7.8 | 0.00 | 0.00 | 0.00 | 55 | 1017.9 |
| 20260905183505 | 91 | 323 | 3.5 | 7.8 | 0.00 | 0.00 | 0.00 | 56 | 1018.0 |
| 20260905183405 | 91 | 290 | 3.5 | 7.8 | 0.00 | 0.00 | 0.00 | 55 | 1018.0 |
| 20260905183303 | 91 | 305 | 2.6 | 7.8 | 0.00 | 0.00 | 0.00 | 54 | 1018.0 |
| 20260905183159 | 91 | 316 | 1.7 | 7.8 | 0.00 | 0.00 | 0.00 | 55 | 1018.0 |
| 20260905183100 | 91 | 317 | 1.7 | 7.8 | 0.00 | 0.00 | 0.00 | 55 | 1018.0 |
| 20260905182959 | 91 | 330 | 1.7 | 7.8 | 0.00 | 0.00 | 0.00 | 55 | 1018.0 |
| 20260905182900 | 91 | 22 | 1.7 | 7.8 | 0.00 | 0.00 | 0.00 | 56 | 1018.0 |
| 20260905182753 | 91 | 296 | 1.7 | 7.8 | 0.00 | 0.00 | 0.00 | 57 | 1018.1 |
| 20260905182655 | 91 | 31 | 1.7 | 6.1 | 0.00 | 0.00 | 0.00 | 57 | 1018.1 |
| 20260905182555 | 91 | 38 | 1.7 | 6.1 | 0.00 | 0.00 | 0.00 | 58 | 1018.1 |
| 20260905182453 | 90 | 82 | 1.7 | 6.1 | 0.00 | 0.00 | 0.00 | 58 | 1018.0 |
| 20260905182359 | 90 | 78 | 2.6 | 8.7 | 0.00 | 0.00 | 0.00 | 57 | 1018.0 |
| 20260905182247 | 90 | 78 | 2.6 | 8.7 | 0.00 | 0.00 | 0.00 | 57 | 1018.0 |
| 20260905182208 | 90 | 326 | 3.5 | 8.7 | 0.00 | 0.00 | 0.00 | 56 | 1018.2 |
| 20260905182157 | 90 | 78 | 3.5 | 8.7 | 0.00 | 0.00 | 0.00 | 57 | 1018.1 |
| 20260905182135 | 90 | 232 | 3.5 | 8.7 | 0.00 | 0.00 | 0.00 | 56 | 1018.2 |
| 20260905182012 | 90 | 326 | 3.5 | 8.7 | 0.00 | 0.00 | 0.00 | 56 | 1018.2 |
| 20260905181821 | 90 | 325 | 2.6 | 8.7 | 0.00 | 0.00 | 0.00 | 56 | 1018.4 |
| 20260905181808 | 90 | 312 | 2.6 | 8.7 | 0.00 | 0.00 | 0.00 | 57 | 1018.4 |
| 20260905181549 | 90 | 273 | 2.6 | 8.7 | 0.00 | 0.00 | 0.00 | 56 | 1018.4 |
| 20260905181443 | 90 | 298 | 2.6 | 8.7 | 0.00 | 0.00 | 0.00 | 56 | 1018.4 |
| 20260905181342 | 90 | 267 | 2.6 | 7.8 | 0.00 | 0.00 | 0.00 | 56 | 1018.4 |
| 20260905181330 | 91 | 311 | 1.7 | 4.3 | 0.00 | 0.00 | 0.00 | 57 | 1018.4 |
| 20260905181314 | 91 | 311 | 2.6 | 7.0 | 0.00 | 0.00 | 0.00 | 56 | 1018.4 |
| 20260905181041 | 90 | 310 | 1.7 | 4.3 | 0.00 | 0.00 | 0.00 | 57 | 1018.2 |
| 20260905180942 | 90 | 10 | 1.7 | 4.3 | 0.00 | 0.00 | 0.00 | 57 | 1018.4 |
| 20260905180840 | 90 | 10 | 1.7 | 4.3 | 0.00 | 0.00 | 0.00 | 57 | 1018.2 |
| 20260905180740 | 90 | 343 | 1.7 | 4.3 | 0.00 | 0.00 | 0.00 | 56 | 1018.4 |
| 20260905180648 | 90 | 291 | 1.7 | 4.3 | 0.00 | 0.00 | 0.00 | 57 | 1018.4 |
| 20260905180606 | 90 | 317 | 1.7 | 4.3 | 0.00 | 0.00 | 0.00 | 57 | 1018.4 |
| 20260905180435 | 91 | 9 | 1.7 | 4.3 | 0.00 | 0.00 | 0.00 | 58 | 1018.4 |
| 20260905180335 | 90 | 5 | 1.7 | 4.3 | 0.00 | 0.00 | 0.00 | 59 | 1018.4 |
| 20260905180235 | 90 | 35 | 1.7 | 4.3 | 0.00 | 0.00 | 0.00 | 58 | 1018.4 |
| 20260905180136 | 90 | 51 | 1.7 | 6.1 | 0.00 | 0.00 | 0.00 | 60 | 1018.5 |
| 20260905180033 | 90 | 31 | 1.7 | 6.1 | 0.00 | 0.00 | 0.00 | 60 | 1018.5 |
| 20260905175929 | 89 | 335 | 1.7 | 6.1 | 0.00 | 0.00 | 0.00 | 59 | 1018.4 |
| 20260905175830 | 89 | 300 | 1.7 | 6.1 | 0.00 | 0.00 | 0.00 | 60 | 1018.4 |
| 20260905175729 | 89 | 103 | 2.6 | 6.1 | 0.00 | 0.00 | 0.00 | 59 | 1018.5 |
| 20260905175629 | 89 | 80 | 2.6 | 6.1 | 0.00 | 0.00 | 0.00 | 60 | 1018.5 |
| 20260905175524 | 89 | 81 | 1.7 | 6.1 | 0.00 | 0.00 | 0.00 | 59 | 1018.5 |
| 20260905175423 | 89 | 31 | 2.6 | 6.1 | 0.00 | 0.00 | 0.00 | 58 | 1018.5 |
| 20260905175356 | 89 | 0 | 1.7 | 5.2 | 0.00 | 0.00 | 0.00 | 58 | 1018.6 |
| 20260905175345 | 89 | 34 | 2.6 | 6.1 | 0.00 | 0.00 | 0.00 | 58 | 1018.6 |
| 20260905175123 | 89 | 18 | 1.7 | 5.2 | 0.00 | 0.00 | 0.00 | 60 | 1018.6 |
| 20260905175053 | 89 | 79 | 1.7 | 6.1 | 0.00 | 0.00 | 0.00 | 59 | 1018.7 |
| 20260905175041 | 89 | 70 | 1.7 | 5.2 | 0.00 | 0.00 | 0.00 | 59 | 1018.6 |
| 20260905174816 | 89 | 37 | 1.7 | 6.1 | 0.00 | 0.00 | 0.00 | 59 | 1018.6 |
| 20260905174715 | 89 | 46 | 1.7 | 6.1 | 0.00 | 0.00 | 0.00 | 58 | 1018.6 |
| 20260905174616 | 89 | 49 | 2.6 | 6.1 | 0.00 | 0.00 | 0.00 | 58 | 1018.6 |
| 20260905174519 | 89 | 51 | 2.6 | 6.1 | 0.00 | 0.00 | 0.00 | 60 | 1018.6 |
| 20260905174416 | 89 | 74 | 2.6 | 6.1 | 0.00 | 0.00 | 0.00 | 59 | 1018.6 |
| 20260905174312 | 89 | 82 | 2.6 | 6.1 | 0.00 | 0.00 | 0.00 | 59 | 1018.6 |
| 20260905174213 | 89 | 82 | 2.6 | 6.1 | 0.00 | 0.00 | 0.00 | 60 | 1018.6 |
| 20260905174116 | 89 | 355 | 2.6 | 6.1 | 0.00 | 0.00 | 0.00 | 58 | 1018.6 |
| 20260905174056 | 89 | 26 | 2.6 | 5.2 | 0.00 | 0.00 | 0.00 | 59 | 1018.6 |
| 20260905174042 | 89 | 5 | 1.7 | 6.1 | 0.00 | 0.00 | 0.00 | 58 | 1018.6 |
| 20260905173812 | 89 | 14 | 2.6 | 7.8 | 0.00 | 0.00 | 0.00 | 60 | 1018.6 |
| 20260905173712 | 89 | 69 | 2.6 | 7.8 | 0.00 | 0.00 | 0.00 | 60 | 1018.6 |
| 20260905173612 | 89 | 339 | 2.6 | 7.8 | 0.00 | 0.00 | 0.00 | 60 | 1018.6 |
| 20260905173513 | 88 | 328 | 2.6 | 7.8 | 0.00 | 0.00 | 0.00 | 59 | 1018.6 |
| 20260905173409 | 88 | 109 | 2.6 | 7.8 | 0.00 | 0.00 | 0.00 | 59 | 1018.6 |
| 20260905173310 | 88 | 87 | 2.6 | 7.8 | 0.00 | 0.00 | 0.00 | 59 | 1018.6 |
| 20260905173208 | 88 | 85 | 2.6 | 7.8 | 0.00 | 0.00 | 0.00 | 60 | 1018.7 |
| 20260905173107 | 88 | 63 | 3.5 | 7.8 | 0.00 | 0.00 | 0.00 | 62 | 1018.7 |
| 20260905173007 | 88 | 22 | 2.6 | 7.8 | 0.00 | 0.00 | 0.00 | 60 | 1018.7 |
| 20260905172903 | 88 | 42 | 2.6 | 7.8 | 0.00 | 0.00 | 0.00 | 61 | 1018.7 |
| 20260905172804 | 88 | 15 | 2.6 | 7.0 | 0.00 | 0.00 | 0.00 | 60 | 1018.7 |
| 20260905172703 | 88 | 38 | 1.7 | 7.0 | 0.00 | 0.00 | 0.00 | 59 | 1018.7 |
| 20260905172604 | 88 | 351 | 1.7 | 7.0 | 0.00 | 0.00 | 0.00 | 61 | 1018.7 |
| 20260905172504 | 88 | 70 | 1.7 | 7.0 | 0.00 | 0.00 | 0.00 | 59 | 1018.7 |
| 20260905172403 | 88 | 17 | 1.7 | 4.3 | 0.00 | 0.00 | 0.00 | 61 | 1018.7 |
| 20260905172305 | 88 | 19 | 1.7 | 4.3 | 0.00 | 0.00 | 0.00 | 61 | 1018.8 |
| 20260905172203 | 88 | 63 | 1.7 | 4.3 | 0.00 | 0.00 | 0.00 | 62 | 1018.7 |
| 20260905172103 | 88 | 355 | 1.7 | 4.3 | 0.00 | 0.00 | 0.00 | 62 | 1018.7 |
| 20260905172001 | 88 | 292 | 1.7 | 7.0 | 0.00 | 0.00 | 0.00 | 62 | 1018.7 |
| 20260905171932 | 88 | 62 | 2.6 | 7.0 | 0.00 | 0.00 | 0.00 | 63 | 1018.8 |
| 20260905171921 | 88 | 62 | 2.6 | 7.0 | 0.00 | 0.00 | 0.00 | 62 | 1018.7 |
| 20260905171752 | 88 | 63 | 3.5 | 8.7 | 0.00 | 0.00 | 0.00 | 63 | 1018.8 |
| 20260905171747 | 88 | 21 | 2.6 | 8.7 | 0.00 | 0.00 | 0.00 | 62 | 1018.8 |
| 20260905171733 | 88 | 342 | 2.6 | 8.7 | 0.00 | 0.00 | 0.00 | 62 | 1018.8 |
| 20260905171548 | 88 | 5 | 2.6 | 8.7 | 0.00 | 0.00 | 0.00 | 63 | 1018.8 |
| 20260905171421 | 88 | 9 | 3.5 | 8.7 | 0.00 | 0.00 | 0.00 | 62 | 1018.8 |
| 20260905171157 | 88 | 9 | 3.5 | 8.7 | 0.00 | 0.00 | 0.00 | 64 | 1018.9 |
| 20260905171057 | 88 | 0 | 3.5 | 8.7 | 0.00 | 0.00 | 0.00 | 63 | 1018.9 |
| 20260905171027 | 87 | 44 | 3.5 | 8.7 | 0.00 | 0.00 | 0.00 | 64 | 1018.9 |
| 20260905171015 | 87 | 39 | 3.5 | 8.7 | 0.00 | 0.00 | 0.00 | 63 | 1018.9 |
| 20260905170752 | 87 | 54 | 3.5 | 8.7 | 0.00 | 0.00 | 0.00 | 64 | 1018.8 |
| 20260905170717 | 87 | 92 | 3.5 | 8.7 | 0.00 | 0.00 | 0.00 | 64 | 1018.8 |
| 20260905170707 | 87 | 60 | 3.5 | 8.7 | 0.00 | 0.00 | 0.00 | 64 | 1018.9 |
| 20260905170444 | 87 | 57 | 3.5 | 8.7 | 0.00 | 0.00 | 0.00 | 65 | 1018.9 |
| 20260905170345 | 87 | 103 | 3.5 | 8.7 | 0.00 | 0.00 | 0.00 | 64 | 1019.0 |
| 20260905170240 | 87 | 51 | 3.5 | 8.7 | 0.00 | 0.00 | 0.00 | 65 | 1019.0 |
| 20260905170141 | 87 | 68 | 3.5 | 8.7 | 0.00 | 0.00 | 0.00 | 65 | 1019.0 |
| 20260905170041 | 87 | 54 | 3.5 | 7.0 | 0.00 | 0.00 | 0.00 | 66 | 1019.0 |
| 20260905170012 | 87 | 308 | 3.5 | 9.6 | 0.00 | 0.00 | 0.00 | 65 | 1019.0 |
| 20260905170003 | 87 | 78 | 3.5 | 9.6 | 0.00 | 0.00 | 0.00 | 64 | 1019.0 |
| 20260905165742 | 87 | 0 | 3.5 | 9.6 | 0.00 | 0.00 | 0.00 | 64 | 1019.1 |
| 20260905165641 | 87 | 29 | 3.5 | 9.6 | 0.00 | 0.00 | 0.00 | 66 | 1019.0 |
| 20260905165610 | 87 | 0 | 4.3 | 9.6 | 0.00 | 0.00 | 0.00 | 65 | 1019.0 |
| 20260905165600 | 87 | 34 | 3.5 | 9.6 | 0.00 | 0.00 | 0.00 | 67 | 1019.0 |
| 20260905165342 | 87 | 38 | 4.3 | 9.6 | 0.00 | 0.00 | 0.00 | 66 | 1019.0 |
| 20260905165241 | 87 | 67 | 4.3 | 9.6 | 0.00 | 0.00 | 0.00 | 65 | 1019.0 |
| 20260905165142 | 87 | 67 | 4.3 | 9.6 | 0.00 | 0.00 | 0.00 | 65 | 1019.0 |
| 20260905165115 | 87 | 77 | 3.5 | 8.7 | 0.00 | 0.00 | 0.00 | 66 | 1019.1 |
| 20260905165111 | 87 | 67 | 3.5 | 8.7 | 0.00 | 0.00 | 0.00 | 65 | 1019.1 |
| 20260905165058 | 87 | 87 | 3.5 | 9.6 | 0.00 | 0.00 | 0.00 | 65 | 1019.1 |
| 20260905165032 | 87 | 77 | 3.5 | 8.7 | 0.00 | 0.00 | 0.00 | 66 | 1019.0 |
| 20260905164638 | 87 | 42 | 2.6 | 7.8 | 0.00 | 0.00 | 0.00 | 65 | 1019.0 |
| 20260905164558 | 86 | 69 | 2.6 | 7.8 | 0.00 | 0.00 | 0.00 | 67 | 1019.0 |
| 20260905164552 | 86 | 5 | 3.5 | 7.8 | 0.00 | 0.00 | 0.00 | 66 | 1019.0 |
| 20260905164543 | 87 | 11 | 2.6 | 7.8 | 0.00 | 0.00 | 0.00 | 64 | 1019.0 |
| 20260905164519 | 87 | 18 | 2.6 | 7.8 | 0.00 | 0.00 | 0.00 | 66 | 1019.1 |
| 20260905164135 | 86 | 57 | 3.5 | 7.8 | 0.00 | 0.00 | 0.00 | 66 | 1019.0 |
| 20260905164037 | 86 | 76 | 2.6 | 7.8 | 0.00 | 0.00 | 0.00 | 65 | 1019.2 |
| 20260905163948 | 86 | 29 | 2.6 | 7.0 | 0.00 | 0.00 | 0.00 | 66 | 1019.1 |
| 20260905163834 | 86 | 14 | 2.6 | 7.0 | 0.00 | 0.00 | 0.00 | 65 | 1019.1 |
| 20260905163737 | 86 | 0 | 2.6 | 7.0 | 0.00 | 0.00 | 0.00 | 66 | 1019.2 |
| 20260905163713 | 86 | 47 | 2.6 | 7.0 | 0.00 | 0.00 | 0.00 | 67 | 1019.2 |
| 20260905163659 | 87 | 78 | 2.6 | 7.0 | 0.00 | 0.00 | 0.00 | 66 | 1019.2 |
| 20260905163434 | 86 | 80 | 2.6 | 7.0 | 0.00 | 0.00 | 0.00 | 65 | 1019.2 |
| 20260905163333 | 86 | 0 | 2.6 | 6.1 | 0.00 | 0.00 | 0.00 | 66 | 1019.2 |
| 20260905163235 | 86 | 0 | 2.6 | 7.8 | 0.00 | 0.00 | 0.00 | 68 | 1019.2 |
| 20260905163133 | 86 | 11 | 2.6 | 7.8 | 0.00 | 0.00 | 0.00 | 66 | 1019.3 |
| 20260905163032 | 86 | 11 | 2.6 | 7.8 | 0.00 | 0.00 | 0.00 | 67 | 1019.3 |
| 20260905162931 | 86 | 15 | 2.6 | 7.8 | 0.00 | 0.00 | 0.00 | 68 | 1019.3 |
| 20260905162904 | 85 | 54 | 2.6 | 7.8 | 0.00 | 0.00 | 0.00 | 67 | 1019.3 |
| 20260905162854 | 85 | 115 | 2.6 | 7.8 | 0.00 | 0.00 | 0.00 | 67 | 1019.3 |
| 20260905162632 | 85 | 84 | 2.6 | 7.8 | 0.00 | 0.00 | 0.00 | 68 | 1019.3 |
| 20260905162529 | 85 | 59 | 2.6 | 7.8 | 0.00 | 0.00 | 0.00 | 68 | 1019.3 |
| 20260905162429 | 85 | 82 | 2.6 | 7.8 | 0.00 | 0.00 | 0.00 | 67 | 1019.3 |
| 20260905162329 | 85 | 68 | 2.6 | 7.8 | 0.00 | 0.00 | 0.00 | 68 | 1019.3 |
| 20260905162229 | 85 | 67 | 2.6 | 7.0 | 0.00 | 0.00 | 0.00 | 67 | 1019.3 |
| 20260905162131 | 85 | 22 | 2.6 | 7.0 | 0.00 | 0.00 | 0.00 | 67 | 1019.3 |
| 20260905162105 | 85 | 65 | 2.6 | 7.0 | 0.00 | 0.00 | 0.00 | 69 | 1019.3 |
| 20260905162055 | 85 | 5 | 2.6 | 7.0 | 0.00 | 0.00 | 0.00 | 68 | 1019.3 |
| 20260905161828 | 85 | 9 | 1.7 | 6.1 | 0.00 | 0.00 | 0.00 | 69 | 1019.3 |
| 20260905161727 | 85 | 70 | 1.7 | 6.1 | 0.00 | 0.00 | 0.00 | 68 | 1019.3 |
| 20260905161628 | 85 | 46 | 1.7 | 6.1 | 0.00 | 0.00 | 0.00 | 69 | 1019.3 |
| 20260905161525 | 85 | 33 | 1.7 | 4.3 | 0.00 | 0.00 | 0.00 | 69 | 1019.3 |
| 20260905161420 | 85 | 77 | 1.7 | 4.3 | 0.00 | 0.00 | 0.00 | 70 | 1019.3 |
| 20260905161319 | 85 | 0 | 2.6 | 4.3 | 0.00 | 0.00 | 0.00 | 69 | 1019.4 |
| 20260905161220 | 85 | 0 | 2.6 | 6.1 | 0.00 | 0.00 | 0.00 | 68 | 1019.4 |
| 20260905161120 | 85 | 0 | 2.6 | 6.1 | 0.00 | 0.00 | 0.00 | 68 | 1019.4 |
| 20260905161022 | 85 | 342 | 2.6 | 6.1 | 0.00 | 0.00 | 0.00 | 68 | 1019.4 |
| 20260905160914 | 85 | 339 | 2.6 | 6.1 | 0.00 | 0.00 | 0.00 | 69 | 1019.4 |
| 20260905160813 | 85 | 70 | 2.6 | 6.1 | 0.00 | 0.00 | 0.00 | 69 | 1019.4 |
| 20260905160752 | 85 | 38 | 2.6 | 6.1 | 0.00 | 0.00 | 0.00 | 69 | 1019.3 |
| 20260905160740 | 85 | 44 | 2.6 | 6.1 | 0.00 | 0.00 | 0.00 | 69 | 1019.4 |
| 20260905160514 | 85 | 93 | 2.6 | 6.1 | 0.00 | 0.00 | 0.00 | 69 | 1019.4 |
| 20260905160403 | 85 | 61 | 2.6 | 7.0 | 0.00 | 0.00 | 0.00 | 70 | 1019.3 |
| 20260905160344 | 85 | 67 | 2.6 | 7.0 | 0.00 | 0.00 | 0.00 | 70 | 1019.3 |
| 20260905160328 | 85 | 44 | 2.6 | 7.0 | 0.00 | 0.00 | 0.00 | 68 | 1019.3 |
| 20260905160104 | 84 | 59 | 2.6 | 7.0 | 0.00 | 0.00 | 0.00 | 70 | 1019.3 |
| 20260905160006 | 84 | 76 | 2.6 | 7.0 | 0.00 | 0.00 | 0.00 | 70 | 1019.3 |
| 20260905155903 | 84 | 58 | 2.6 | 7.0 | 0.00 | 0.00 | 0.00 | 70 | 1019.3 |
| 20260905155805 | 84 | 61 | 2.6 | 7.0 | 0.00 | 0.00 | 0.00 | 68 | 1019.2 |
| 20260905155703 | 84 | 61 | 2.6 | 7.0 | 0.00 | 0.00 | 0.00 | 69 | 1019.4 |
| 20260905155603 | 85 | 36 | 1.7 | 7.0 | 0.00 | 0.00 | 0.00 | 70 | 1019.3 |
| 20260905155503 | 85 | 10 | 1.7 | 7.0 | 0.00 | 0.00 | 0.00 | 69 | 1019.3 |
| 20260905155408 | 85 | 42 | 1.7 | 5.2 | 0.00 | 0.00 | 0.00 | 68 | 1019.3 |
| 20260905155331 | 85 | 67 | 1.7 | 3.5 | 0.00 | 0.00 | 0.00 | 68 | 1019.3 |
| 20260905155322 | 85 | 69 | 1.7 | 3.5 | 0.00 | 0.00 | 0.00 | 69 | 1019.3 |
| 20260905155103 | 85 | 63 | 1.7 | 3.5 | 0.00 | 0.00 | 0.00 | 67 | 1019.3 |
| 20260905155004 | 85 | 9 | 1.7 | 3.5 | 0.00 | 0.00 | 0.00 | 69 | 1019.3 |
| 20260905154906 | 85 | 39 | 1.7 | 4.3 | 0.00 | 0.00 | 0.00 | 69 | 1019.3 |
| 20260905154803 | 85 | 39 | 1.7 | 4.3 | 0.00 | 0.00 | 0.00 | 68 | 1019.4 |
| 20260905154655 | 85 | 17 | 1.7 | 4.3 | 0.00 | 0.00 | 0.00 | 68 | 1019.4 |
| 20260905154556 | 85 | 51 | 1.7 | 4.3 | 0.00 | 0.00 | 0.00 | 68 | 1019.4 |
| 20260905154457 | 85 | 51 | 1.7 | 4.3 | 0.00 | 0.00 | 0.00 | 69 | 1019.3 |
| 20260905154356 | 85 | 13 | 1.7 | 4.3 | 0.00 | 0.00 | 0.00 | 69 | 1019.3 |
| 20260905154300 | 85 | 45 | 0.9 | 4.3 | 0.00 | 0.00 | 0.00 | 67 | 1019.3 |
| 20260905154155 | 85 | 74 | 0.9 | 4.3 | 0.00 | 0.00 | 0.00 | 68 | 1019.2 |
| 20260905154055 | 85 | 19 | 0.9 | 4.3 | 0.00 | 0.00 | 0.00 | 68 | 1019.3 |
| 20260905153957 | 85 | 34 | 0.9 | 4.3 | 0.00 | 0.00 | 0.00 | 69 | 1019.3 |
| 20260905153853 | 85 | 25 | 0.9 | 3.5 | 0.00 | 0.00 | 0.00 | 68 | 1019.3 |
| 20260905153751 | 85 | 68 | 0.9 | 3.5 | 0.00 | 0.00 | 0.00 | 67 | 1019.2 |
| 20260905153644 | 85 | 40 | 0.9 | 3.5 | 0.00 | 0.00 | 0.00 | 69 | 1019.3 |
| 20260905153545 | 85 | 49 | 1.7 | 4.3 | 0.00 | 0.00 | 0.00 | 68 | 1019.3 |
| 20260905153443 | 85 | 49 | 1.7 | 4.3 | 0.00 | 0.00 | 0.00 | 67 | 1019.3 |
| 20260905153418 | 85 | 49 | 1.7 | 4.3 | 0.00 | 0.00 | 0.00 | 68 | 1019.3 |
| 20260905153408 | 85 | 49 | 1.7 | 4.3 | 0.00 | 0.00 | 0.00 | 68 | 1019.3 |
| 20260905153135 | 85 | 73 | 1.7 | 4.3 | 0.00 | 0.00 | 0.00 | 69 | 1019.2 |
| 20260905153035 | 85 | 68 | 1.7 | 4.3 | 0.00 | 0.00 | 0.00 | 68 | 1019.3 |
| 20260905152940 | 85 | 325 | 1.7 | 5.2 | 0.00 | 0.00 | 0.00 | 67 | 1019.3 |
| 20260905152921 | 85 | 12 | 1.7 | 5.2 | 0.00 | 0.00 | 0.00 | 67 | 1019.3 |
| 20260905152908 | 85 | 5 | 1.7 | 5.2 | 0.00 | 0.00 | 0.00 | 67 | 1019.3 |
| 20260905152635 | 85 | 59 | 1.7 | 5.2 | 0.00 | 0.00 | 0.00 | 69 | 1019.3 |
| 20260905152536 | 85 | 46 | 1.7 | 5.2 | 0.00 | 0.00 | 0.00 | 68 | 1019.3 |
| 20260905152437 | 85 | 46 | 2.6 | 5.2 | 0.00 | 0.00 | 0.00 | 68 | 1019.4 |
| 20260905152337 | 85 | 44 | 2.6 | 5.2 | 0.00 | 0.00 | 0.00 | 66 | 1019.3 |
| 20260905152234 | 85 | 56 | 2.6 | 7.0 | 0.00 | 0.00 | 0.00 | 67 | 1019.4 |
| 20260905152143 | 85 | 38 | 2.6 | 7.0 | 0.00 | 0.00 | 0.00 | 67 | 1019.3 |
| 20260905152039 | 85 | 25 | 2.6 | 7.0 | 0.00 | 0.00 | 0.00 | 67 | 1019.3 |
| 20260905151936 | 85 | 16 | 2.6 | 7.0 | 0.00 | 0.00 | 0.00 | 66 | 1019.4 |
| 20260905151833 | 85 | 67 | 1.7 | 7.0 | 0.00 | 0.00 | 0.00 | 67 | 1019.3 |
| 20260905151738 | 85 | 55 | 2.6 | 7.0 | 0.00 | 0.00 | 0.00 | 68 | 1019.4 |
| 20260905151710 | 85 | 11 | 1.7 | 7.0 | 0.00 | 0.00 | 0.00 | 68 | 1019.4 |
| 20260905151658 | 85 | 112 | 2.6 | 7.0 | 0.00 | 0.00 | 0.00 | 67 | 1019.3 |
| 20260905151429 | 85 | 64 | 1.7 | 7.0 | 0.00 | 0.00 | 0.00 | 68 | 1019.4 |
| 20260905151335 | 84 | 47 | 1.7 | 7.0 | 0.00 | 0.00 | 0.00 | 68 | 1019.3 |
| 20260905151226 | 84 | 24 | 1.7 | 4.3 | 0.00 | 0.00 | 0.00 | 67 | 1019.4 |
| 20260905151150 | 84 | 34 | 0.9 | 4.3 | 0.00 | 0.00 | 0.00 | 67 | 1019.4 |
| 20260905151132 | 84 | 10 | 1.7 | 4.3 | 0.00 | 0.00 | 0.00 | 67 | 1019.4 |
| 20260905151118 | 84 | 34 | 0.9 | 4.3 | 0.00 | 0.00 | 0.00 | 68 | 1019.4 |
| 20260905151100 | 84 | 11 | 0.9 | 4.3 | 0.00 | 0.00 | 0.00 | 67 | 1019.4 |
| 20260905150751 | 84 | 74 | 0.9 | 5.2 | 0.00 | 0.00 | 0.00 | 70 | 1019.4 |
| 20260905150741 | 84 | 20 | 0.9 | 5.2 | 0.00 | 0.00 | 0.00 | 69 | 1019.3 |
| 20260905150521 | 84 | 73 | 0.9 | 5.2 | 0.00 | 0.00 | 0.00 | 71 | 1019.3 |
| 20260905150416 | 84 | 73 | 1.7 | 5.2 | 0.00 | 0.00 | 0.00 | 70 | 1019.3 |
| 20260905150317 | 84 | 75 | 1.7 | 5.2 | 0.00 | 0.00 | 0.00 | 70 | 1019.3 |
| 20260905150217 | 83 | 76 | 1.7 | 5.2 | 0.00 | 0.00 | 0.00 | 70 | 1019.3 |
| 20260905150115 | 83 | 76 | 1.7 | 5.2 | 0.00 | 0.00 | 0.00 | 71 | 1019.3 |
| 20260905150017 | 83 | 76 | 2.6 | 5.2 | 0.00 | 0.00 | 0.00 | 71 | 1019.2 |
| 20260905145957 | 83 | 86 | 2.6 | 5.2 | 0.00 | 0.00 | 0.00 | 72 | 1019.2 |
| 20260905145943 | 83 | 76 | 2.6 | 5.2 | 0.00 | 0.00 | 0.00 | 71 | 1019.3 |
| 20260905145712 | 83 | 9 | 2.6 | 5.2 | 0.00 | 0.00 | 0.00 | 71 | 1019.3 |
| 20260905145611 | 83 | 66 | 2.6 | 5.2 | 0.00 | 0.00 | 0.00 | 71 | 1019.3 |
| 20260905145511 | 83 | 98 | 2.6 | 5.2 | 0.00 | 0.00 | 0.00 | 70 | 1019.3 |
| 20260905145410 | 83 | 65 | 2.6 | 6.1 | 0.00 | 0.00 | 0.00 | 68 | 1019.3 |
| 20260905145312 | 83 | 54 | 2.6 | 6.1 | 0.00 | 0.00 | 0.00 | 69 | 1019.3 |
| 20260905145212 | 83 | 87 | 2.6 | 6.1 | 0.00 | 0.00 | 0.00 | 71 | 1019.3 |
| 20260905145113 | 83 | 89 | 2.6 | 6.1 | 0.00 | 0.00 | 0.00 | 72 | 1019.3 |
| 20260905145032 | 83 | 76 | 1.7 | 6.1 | 0.00 | 0.00 | 0.00 | 72 | 1019.3 |
| 20260905145019 | 83 | 69 | 1.7 | 6.1 | 0.00 | 0.00 | 0.00 | 72 | 1019.3 |
| 20260905144957 | 83 | 52 | 1.7 | 6.1 | 0.00 | 0.00 | 0.00 | 72 | 1019.3 |
| 20260905144834 | 83 | 67 | 1.7 | 6.1 | 0.00 | 0.00 | 0.00 | 71 | 1019.3 |
| 20260905144610 | 82 | 70 | 1.7 | 6.1 | 0.00 | 0.00 | 0.00 | 72 | 1019.3 |
| 20260905144541 | 82 | 76 | 2.6 | 5.2 | 0.00 | 0.00 | 0.00 | 72 | 1019.2 |
| 20260905144529 | 82 | 84 | 1.7 | 6.1 | 0.00 | 0.00 | 0.00 | 72 | 1019.3 |
| 20260905144342 | 82 | 63 | 2.6 | 5.2 | 0.00 | 0.00 | 0.00 | 73 | 1019.2 |
| 20260905144331 | 82 | 106 | 2.6 | 5.2 | 0.00 | 0.00 | 0.00 | 72 | 1019.2 |
| 20260905144109 | 82 | 62 | 2.6 | 5.2 | 0.00 | 0.00 | 0.00 | 73 | 1019.2 |
| 20260905144035 | 82 | 40 | 2.6 | 5.2 | 0.00 | 0.00 | 0.00 | 73 | 1019.2 |
| 20260905144026 | 82 | 64 | 2.6 | 5.2 | 0.00 | 0.00 | 0.00 | 73 | 1019.3 |
| 20260905143806 | 82 | 36 | 1.7 | 5.2 | 0.00 | 0.00 | 0.00 | 73 | 1019.2 |
| 20260905143705 | 82 | 52 | 1.7 | 5.2 | 0.00 | 0.00 | 0.00 | 73 | 1019.2 |
| 20260905143605 | 82 | 49 | 1.7 | 5.2 | 0.00 | 0.00 | 0.00 | 72 | 1019.2 |
| 20260905143529 | 82 | 58 | 1.7 | 3.5 | 0.00 | 0.00 | 0.00 | 73 | 1019.2 |
| 20260905143525 | 82 | 58 | 1.7 | 3.5 | 0.00 | 0.00 | 0.00 | 72 | 1019.2 |
| 20260905143511 | 82 | 55 | 1.7 | 5.2 | 0.00 | 0.00 | 0.00 | 73 | 1019.3 |
| 20260905143451 | 82 | 55 | 1.7 | 4.3 | 0.00 | 0.00 | 0.00 | 74 | 1019.3 |
| 20260905143141 | 82 | 73 | 1.7 | 3.5 | 0.00 | 0.00 | 0.00 | 73 | 1019.2 |
| 20260905143129 | 82 | 73 | 1.7 | 3.5 | 0.00 | 0.00 | 0.00 | 73 | 1019.2 |
| 20260905142902 | 82 | 58 | 1.7 | 2.6 | 0.00 | 0.00 | 0.00 | 74 | 1019.2 |
| 20260905142803 | 82 | 58 | 1.7 | 2.6 | 0.00 | 0.00 | 0.00 | 73 | 1019.2 |
| 20260905142659 | 82 | 58 | 1.7 | 4.3 | 0.00 | 0.00 | 0.00 | 73 | 1019.1 |
| 20260905142628 | 82 | 58 | 1.7 | 5.2 | 0.00 | 0.00 | 0.00 | 74 | 1019.2 |
| 20260905142617 | 82 | 58 | 1.7 | 4.3 | 0.00 | 0.00 | 0.00 | 73 | 1019.1 |
| 20260905142352 | 82 | 57 | 1.7 | 5.2 | 0.00 | 0.00 | 0.00 | 74 | 1019.2 |
| 20260905142254 | 82 | 59 | 1.7 | 5.2 | 0.00 | 0.00 | 0.00 | 73 | 1019.1 |
| 20260905142154 | 82 | 69 | 1.7 | 5.2 | 0.00 | 0.00 | 0.00 | 73 | 1019.2 |
| 20260905142053 | 82 | 69 | 1.7 | 5.2 | 0.00 | 0.00 | 0.00 | 73 | 1019.2 |
| 20260905141953 | 82 | 69 | 1.7 | 5.2 | 0.00 | 0.00 | 0.00 | 72 | 1019.2 |
| 20260905141853 | 82 | 71 | 1.7 | 5.2 | 0.00 | 0.00 | 0.00 | 73 | 1019.2 |
| 20260905141753 | 82 | 74 | 1.7 | 5.2 | 0.00 | 0.00 | 0.00 | 73 | 1019.1 |
| 20260905141654 | 82 | 58 | 1.7 | 5.2 | 0.00 | 0.00 | 0.00 | 73 | 1019.2 |
| 20260905141624 | 82 | 64 | 1.7 | 4.3 | 0.00 | 0.00 | 0.00 | 73 | 1019.1 |
| 20260905141617 | 82 | 58 | 1.7 | 5.2 | 0.00 | 0.00 | 0.00 | 72 | 1019.2 |
| 20260905141353 | 82 | 44 | 1.7 | 4.3 | 0.00 | 0.00 | 0.00 | 74 | 1019.1 |
| 20260905141254 | 82 | 59 | 1.7 | 4.3 | 0.00 | 0.00 | 0.00 | 74 | 1019.1 |
| 20260905141151 | 82 | 59 | 1.7 | 4.3 | 0.00 | 0.00 | 0.00 | 73 | 1019.1 |
| 20260905141051 | 82 | 59 | 1.7 | 4.3 | 0.00 | 0.00 | 0.00 | 73 | 1019.1 |
| 20260905140948 | 82 | 59 | 1.7 | 4.3 | 0.00 | 0.00 | 0.00 | 73 | 1019.1 |
| 20260905140849 | 82 | 59 | 1.7 | 4.3 | 0.00 | 0.00 | 0.00 | 73 | 1019.1 |
| 20260905140743 | 82 | 56 | 1.7 | 4.3 | 0.00 | 0.00 | 0.00 | 74 | 1019.2 |
| 20260905140641 | 82 | 73 | 1.7 | 4.3 | 0.00 | 0.00 | 0.00 | 72 | 1019.1 |
| 20260905140546 | 82 | 63 | 1.7 | 4.3 | 0.00 | 0.00 | 0.00 | 73 | 1019.1 |
| 20260905140442 | 82 | 46 | 1.7 | 4.3 | 0.00 | 0.00 | 0.00 | 73 | 1019.2 |
| 20260905140342 | 82 | 46 | 1.7 | 4.3 | 0.00 | 0.00 | 0.00 | 74 | 1019.2 |
| 20260905140243 | 82 | 30 | 1.7 | 4.3 | 0.00 | 0.00 | 0.00 | 74 | 1019.1 |
| 20260905140140 | 82 | 55 | 1.7 | 4.3 | 0.00 | 0.00 | 0.00 | 74 | 1019.1 |
| 20260905140107 | 81 | 47 | 0.9 | 2.6 | 0.00 | 0.00 | 0.00 | 73 | 1019.0 |
| 20260905140058 | 81 | 57 | 0.9 | 4.3 | 0.00 | 0.00 | 0.00 | 73 | 1019.1 |
| 20260905135927 | 81 | 46 | 1.7 | 4.3 | 0.00 | 0.00 | 0.00 | 74 | 1019.0 |
| 20260905135921 | 81 | 49 | 1.7 | 4.3 | 0.00 | 0.00 | 0.00 | 73 | 1019.0 |
| 20260905135916 | 81 | 46 | 1.7 | 4.3 | 0.00 | 0.00 | 0.00 | 74 | 1019.1 |
| 20260905135910 | 81 | 46 | 1.7 | 4.3 | 0.00 | 0.00 | 0.00 | 74 | 1019.0 |
| 20260905135856 | 81 | 46 | 1.7 | 2.6 | 0.00 | 0.00 | 0.00 | 73 | 1019.1 |
| 20260905135838 | 81 | 49 | 1.7 | 4.3 | 0.00 | 0.00 | 0.00 | 73 | 1019.0 |
| 20260905135557 | 81 | 28 | 1.7 | 4.3 | 0.00 | 0.00 | 0.00 | 74 | 1019.0 |
| 20260905135544 | 81 | 38 | 1.7 | 4.3 | 0.00 | 0.00 | 0.00 | 74 | 1019.1 |
| 20260905135518 | 81 | 46 | 1.7 | 4.3 | 0.00 | 0.00 | 0.00 | 74 | 1019.0 |
| 20260905135213 | 81 | 46 | 1.7 | 4.3 | 0.00 | 0.00 | 0.00 | 74 | 1019.0 |
| 20260905134828 | 81 | 33 | 1.7 | 4.3 | 0.00 | 0.00 | 0.00 | 75 | 1019.0 |
| 20260905134729 | 81 | 66 | 1.7 | 4.3 | 0.00 | 0.00 | 0.00 | 74 | 1019.0 |
| 20260905134634 | 81 | 57 | 1.7 | 4.3 | 0.00 | 0.00 | 0.00 | 74 | 1019.1 |
| 20260905134522 | 81 | 57 | 1.7 | 4.3 | 0.00 | 0.00 | 0.00 | 74 | 1019.1 |
| 20260905134422 | 81 | 57 | 1.7 | 4.3 | 0.00 | 0.00 | 0.00 | 74 | 1019.1 |
| 20260905134326 | 81 | 58 | 1.7 | 4.3 | 0.00 | 0.00 | 0.00 | 74 | 1019.1 |
| 20260905134221 | 81 | 62 | 1.7 | 4.3 | 0.00 | 0.00 | 0.00 | 74 | 1019.1 |
| 20260905134141 | 81 | 64 | 1.7 | 4.3 | 0.00 | 0.00 | 0.00 | 73 | 1019.2 |
| 20260905134036 | 81 | 65 | 1.7 | 4.3 | 0.00 | 0.00 | 0.00 | 73 | 1019.2 |
| 20260905134009 | 81 | 56 | 1.7 | 4.3 | 0.00 | 0.00 | 0.00 | 74 | 1019.3 |
| 20260905133957 | 81 | 56 | 1.7 | 4.3 | 0.00 | 0.00 | 0.00 | 74 | 1019.2 |
| 20260905133720 | 81 | 56 | 1.7 | 4.3 | 0.00 | 0.00 | 0.00 | 73 | 1019.2 |
| 20260905133621 | 81 | 34 | 1.7 | 4.3 | 0.00 | 0.00 | 0.00 | 73 | 1019.2 |
| 20260905133550 | 81 | 9 | 1.7 | 4.3 | 0.00 | 0.00 | 0.00 | 74 | 1019.2 |
| 20260905133541 | 81 | 9 | 1.7 | 4.3 | 0.00 | 0.00 | 0.00 | 73 | 1019.2 |
| 20260905133351 | 80 | 59 | 1.7 | 4.3 | 0.00 | 0.00 | 0.00 | 73 | 1019.3 |
| 20260905133346 | 81 | 9 | 1.7 | 4.3 | 0.00 | 0.00 | 0.00 | 74 | 1019.3 |
| 20260905133156 | 80 | 48 | 1.7 | 4.3 | 0.00 | 0.00 | 0.00 | 73 | 1019.3 |
| 20260905133030 | 80 | 36 | 1.7 | 4.3 | 0.00 | 0.00 | 0.00 | 73 | 1019.3 |
| 20260905133018 | 80 | 34 | 1.7 | 4.3 | 0.00 | 0.00 | 0.00 | 73 | 1019.4 |
| 20260905133005 | 80 | 36 | 1.7 | 4.3 | 0.00 | 0.00 | 0.00 | 72 | 1019.4 |
| 20260905132740 | 80 | 53 | 0.9 | 4.3 | 0.00 | 0.00 | 0.00 | 74 | 1019.4 |
| 20260905132732 | 80 | 53 | 1.7 | 4.3 | 0.00 | 0.00 | 0.00 | 74 | 1019.4 |
| 20260905132549 | 80 | 43 | 0.9 | 2.6 | 0.00 | 0.00 | 0.00 | 74 | 1019.5 |
| 20260905132535 | 80 | 26 | 0.9 | 2.6 | 0.00 | 0.00 | 0.00 | 74 | 1019.4 |
| 20260905132310 | 80 | 43 | 0.9 | 2.6 | 0.00 | 0.00 | 0.00 | 74 | 1019.4 |
| 20260905132210 | 80 | 60 | 0.9 | 2.6 | 0.00 | 0.00 | 0.00 | 74 | 1019.4 |
| 20260905132108 | 80 | 60 | 1.7 | 2.6 | 0.00 | 0.00 | 0.00 | 74 | 1019.4 |
| 20260905132009 | 80 | 60 | 1.7 | 2.6 | 0.00 | 0.00 | 0.00 | 74 | 1019.4 |
| 20260905131919 | 80 | 60 | 1.7 | 2.6 | 0.00 | 0.00 | 0.00 | 74 | 1019.4 |
| 20260905131847 | 80 | 60 | 1.7 | 2.6 | 0.00 | 0.00 | 0.00 | 73 | 1019.4 |
| 20260905131736 | 80 | 60 | 1.7 | 3.5 | 0.00 | 0.00 | 0.00 | 73 | 1019.5 |
| 20260905131726 | 80 | 60 | 1.7 | 2.6 | 0.00 | 0.00 | 0.00 | 73 | 1019.5 |
| 20260905131508 | 80 | 60 | 1.7 | 7.0 | 0.00 | 0.00 | 0.00 | 73 | 1019.5 |
| 20260905131407 | 80 | 60 | 1.7 | 7.0 | 0.00 | 0.00 | 0.00 | 73 | 1019.5 |
| 20260905131308 | 80 | 58 | 1.7 | 7.0 | 0.00 | 0.00 | 0.00 | 74 | 1019.5 |
| 20260905131207 | 80 | 23 | 1.7 | 7.0 | 0.00 | 0.00 | 0.00 | 74 | 1019.5 |
| 20260905131106 | 80 | 23 | 1.7 | 7.0 | 0.00 | 0.00 | 0.00 | 73 | 1019.5 |
| 20260905131008 | 80 | 5 | 1.7 | 7.0 | 0.00 | 0.00 | 0.00 | 73 | 1019.6 |
| 20260905130910 | 80 | 60 | 1.7 | 7.0 | 0.00 | 0.00 | 0.00 | 73 | 1019.5 |
| 20260905130811 | 80 | 60 | 1.7 | 7.0 | 0.00 | 0.00 | 0.00 | 74 | 1019.5 |
| 20260905130706 | 80 | 61 | 1.7 | 7.0 | 0.00 | 0.00 | 0.00 | 73 | 1019.5 |
| 20260905130606 | 80 | 19 | 1.7 | 7.0 | 0.00 | 0.00 | 0.00 | 74 | 1019.5 |
| 20260905130508 | 80 | 44 | 1.7 | 3.5 | 0.00 | 0.00 | 0.00 | 74 | 1019.5 |
| 20260905130407 | 80 | 44 | 1.7 | 3.5 | 0.00 | 0.00 | 0.00 | 74 | 1019.5 |
| 20260905130357 | 80 | 46 | 1.7 | 4.3 | 0.00 | 0.00 | 0.00 | 74 | 1019.5 |
| 20260905130352 | 80 | 42 | 1.7 | 6.1 | 0.00 | 0.00 | 0.00 | 74 | 1019.5 |
| 20260905130346 | 80 | 51 | 1.7 | 6.1 | 0.00 | 0.00 | 0.00 | 74 | 1019.4 |
| 20260905130335 | 80 | 42 | 1.7 | 3.5 | 0.00 | 0.00 | 0.00 | 74 | 1019.5 |
| 20260905130151 | 80 | 51 | 1.7 | 6.1 | 0.00 | 0.00 | 0.00 | 74 | 1019.5 |